Time,TemperatureF,DewpointF,PressureIn,WindDirection,WindDirectionDegrees,WindSpeedMPH,WindSpeedGustMPH,Humidity,HourlyPrecipIn,Conditions,Clouds,dailyrainin,SoftwareType,DateUTC
2013-05-06 00:00:00,63.7,57.8,29.95,SSE,150,1.1,1.1,81,0.00,CLR,SCT,0.00,WeatherDisplay:10.37,2013-05-06 04:00:00,
2013-05-06 00:01:00,63.7,57.8,29.95,SSE,150,0.0,0.0,81,0.00,CLR,SCT,0.00,WeatherDisplay:10.37,2013-05-06 04:01:00,
2013-05-06 00:06:00,63.8,58.2,29.95,South,169,0.0,0.0,82,0.00,CLR,SCT,0.00,WeatherDisplay:10.37,2013-05-06 04:06:00,
2013-05-06 00:11:00,63.9,58.0,29.95,South,173,3.5,3.5,81,0.00,CLR,SCT,0.00,WeatherDisplay:10.37,2013-05-06 04:11:00,
2013-05-06 00:16:00,64.2,58.2,29.95,SW,218,1.0,1.0,81,0.00,CLR,SCT,0.00,WeatherDisplay:10.37,2013-05-06 04:16:00,
2013-05-06 00:17:00,64.2,58.2,29.95,SW,218,1.1,1.1,81,0.00,CLR,SCT,0.00,WeatherDisplay:10.37,2013-05-06 04:17:00,
2013-05-06 00:21:00,64.3,58.0,29.95,SSE,148,0.0,0.0,80,0.00,CLR,SCT,0.00,WeatherDisplay:10.37,2013-05-06 04:21:00,
2013-05-06 00:22:00,64.3,58.0,29.95,SSW,200,1.1,0.0,80,0.00,CLR,SCT,0.00,WeatherDisplay:10.37,2013-05-06 04:22:00,
2013-05-06 00:26:00,64.3,58.0,29.94,SSW,212,1.1,0.0,80,0.00,CLR,SCT,0.00,WeatherDisplay:10.37,2013-05-06 04:26:00,
2013-05-06 00:27:00,64.3,58.0,29.94,SSW,198,0.0,0.0,80,0.00,CLR,SCT,0.00,WeatherDisplay:10.37,2013-05-06 04:27:00,
2013-05-06 00:31:00,64.3,58.0,29.94,South,190,0.0,0.0,80,0.00,CLR,SCT,0.00,WeatherDisplay:10.37,2013-05-06 04:31:00,
2013-05-06 00:32:00,64.3,58.0,29.94,South,190,0.0,0.0,80,0.00,CLR,SCT,0.00,WeatherDisplay:10.37,2013-05-06 04:32:00,
2013-05-06 00:36:00,64.2,58.2,29.94,SE,142,3.5,3.5,81,0.00,CLR,SCT,0.00,WeatherDisplay:10.37,2013-05-06 04:36:00,
2013-05-06 00:37:00,64.2,58.2,29.94,SE,142,2.3,2.3,81,0.00,CLR,SCT,0.00,WeatherDisplay:10.37,2013-05-06 04:37:00,
2013-05-06 00:38:00,64.2,58.2,29.94,SE,142,0.0,0.0,81,0.00,CLR,SCT,0.00,WeatherDisplay:10.37,2013-05-06 04:38:00,
2013-05-06 00:42:00,64.2,58.2,29.94,SSE,160,1.1,1.1,81,0.00,CLR,SCT,0.00,WeatherDisplay:10.37,2013-05-06 04:42:00,
2013-05-06 00:43:00,64.2,58.2,29.94,SE,145,2.3,2.3,81,0.00,CLR,SCT,0.00,WeatherDisplay:10.37,2013-05-06 04:43:00,
2013-05-06 00:47:00,64.2,58.2,29.94,SSE,157,0.0,0.0,81,0.00,CLR,SCT,0.00,WeatherDisplay:10.37,2013-05-06 04:47:00,
2013-05-06 00:48:00,64.1,58.1,29.94,SSE,156,0.0,0.0,81,0.00,CLR,SCT,0.00,WeatherDisplay:10.37,2013-05-06 04:48:00,
2013-05-06 00:52:00,64.1,58.5,29.94,South,186,3.5,3.5,82,0.00,CLR,SCT,0.00,WeatherDisplay:10.37,2013-05-06 04:52:00,
2013-05-06 00:53:00,64.1,58.5,29.94,SSE,150,3.5,3.5,82,0.00,CLR,SCT,0.00,WeatherDisplay:10.37,2013-05-06 04:53:00,
2013-05-06 00:57:00,64.2,58.6,29.94,SSE,156,1.1,1.1,82,0.00,CLR,SCT,0.00,WeatherDisplay:10.37,2013-05-06 04:57:00,
2013-05-06 00:58:00,64.1,58.5,29.94,WSW,243,1.1,1.1,82,0.00,CLR,SCT,0.00,WeatherDisplay:10.37,2013-05-06 04:58:00,
2013-05-06 00:59:00,64.2,58.6,29.94,SSE,157,2.3,2.3,82,0.00,CLR,SCT,0.00,WeatherDisplay:10.37,2013-05-06 04:59:00,
2013-05-06 01:02:00,64.2,58.6,29.94,SSE,156,0.0,0.0,82,0.00,CLR,SCT,0.00,WeatherDisplay:10.37,2013-05-06 05:02:00,
2013-05-06 01:03:00,64.1,58.5,29.94,SSE,154,0.0,0.0,82,0.00,CLR,SCT,0.00,WeatherDisplay:10.37,2013-05-06 05:03:00,
2013-05-06 01:04:00,64.2,58.9,29.94,SSE,153,1.1,0.0,83,0.00,CLR,SCT,0.00,WeatherDisplay:10.37,2013-05-06 05:04:00,
2013-05-06 01:08:00,64.1,58.8,29.94,SSE,153,0.0,0.0,83,0.00,CLR,SCT,0.00,WeatherDisplay:10.37,2013-05-06 05:08:00,
2013-05-06 01:09:00,64.1,58.8,29.94,SSE,154,0.0,0.0,83,0.00,CLR,SCT,0.00,WeatherDisplay:10.37,2013-05-06 05:09:00,
2013-05-06 01:13:00,64.2,58.9,29.94,SE,145,0.0,0.0,83,0.00,CLR,SCT,0.00,WeatherDisplay:10.37,2013-05-06 05:13:00,
2013-05-06 01:14:00,64.2,58.9,29.94,SE,145,0.0,0.0,83,0.00,CLR,SCT,0.00,WeatherDisplay:10.37,2013-05-06 05:14:00,
2013-05-06 01:18:00,64.2,58.9,29.94,SSW,198,3.5,3.5,83,0.00,CLR,SCT,0.00,WeatherDisplay:10.37,2013-05-06 05:18:00,
2013-05-06 01:19:00,64.2,58.9,29.94,SSE,158,2.3,0.0,83,0.00,CLR,SCT,0.00,WeatherDisplay:10.37,2013-05-06 05:19:00,
2013-05-06 01:20:00,64.2,58.9,29.94,SE,142,2.3,2.3,83,0.00,CLR,SCT,0.00,WeatherDisplay:10.37,2013-05-06 05:20:00,
2013-05-06 01:23:00,64.3,59.0,29.94,SSW,197,2.3,2.3,83,0.00,CLR,SCT,0.00,WeatherDisplay:10.37,2013-05-06 05:23:00,
2013-05-06 01:24:00,64.4,59.1,29.94,SE,135,1.1,1.1,83,0.00,CLR,SCT,0.00,WeatherDisplay:10.37,2013-05-06 05:24:00,
2013-05-06 01:25:00,64.5,59.2,29.94,SSE,163,1.1,1.1,83,0.00,CLR,SCT,0.00,WeatherDisplay:10.37,2013-05-06 05:25:00,
2013-05-06 01:28:00,64.7,59.4,29.93,SSE,164,2.3,2.3,83,0.00,CLR,SCT,0.00,WeatherDisplay:10.37,2013-05-06 05:28:00,
2013-05-06 01:30:00,64.7,59.4,29.94,SE,138,2.3,2.3,83,0.00,CLR,SCT,0.00,WeatherDisplay:10.37,2013-05-06 05:30:00,
2013-05-06 01:33:00,64.9,59.3,29.93,SE,146,1.1,0.0,82,0.00,CLR,SCT,0.00,WeatherDisplay:10.37,2013-05-06 05:33:00,
2013-05-06 01:34:00,65.0,59.4,29.93,SE,145,0.0,0.0,82,0.00,CLR,SCT,0.00,WeatherDisplay:10.37,2013-05-06 05:34:00,
2013-05-06 01:35:00,65.0,59.4,29.93,SE,145,0.0,0.0,82,0.00,CLR,SCT,0.00,WeatherDisplay:10.37,2013-05-06 05:35:00,
2013-05-06 01:39:00,65.1,59.5,29.93,SSE,150,3.5,3.5,82,0.00,CLR,SCT,0.00,WeatherDisplay:10.37,2013-05-06 05:39:00,
2013-05-06 01:40:00,65.2,59.6,29.93,South,184,1.1,1.1,82,0.00,CLR,SCT,0.00,WeatherDisplay:10.37,2013-05-06 05:40:00,
2013-05-06 01:44:00,65.4,59.4,29.93,South,175,2.3,2.3,81,0.00,CLR,SCT,0.00,WeatherDisplay:10.37,2013-05-06 05:44:00,
2013-05-06 01:45:00,65.4,59.4,29.93,ESE,114,2.3,2.3,81,0.00,CLR,SCT,0.00,WeatherDisplay:10.37,2013-05-06 05:45:00,
2013-05-06 01:49:00,65.6,59.6,29.93,SW,216,1.1,1.1,81,0.00,CLR,SCT,0.00,WeatherDisplay:10.37,2013-05-06 05:49:00,
2013-05-06 01:50:00,65.6,59.6,29.93,SE,142,1.1,1.1,81,0.00,CLR,SCT,0.00,WeatherDisplay:10.37,2013-05-06 05:50:00,
2013-05-06 01:51:00,65.6,59.6,29.93,SE,142,2.3,2.3,81,0.00,CLR,SCT,0.00,WeatherDisplay:10.37,2013-05-06 05:51:00,
2013-05-06 01:54:00,65.7,59.7,29.93,SSW,208,0.0,0.0,81,0.00,CLR,SCT,0.00,WeatherDisplay:10.37,2013-05-06 05:54:00,
2013-05-06 01:55:00,65.7,59.7,29.93,South,174,0.0,0.1,81,0.00,CLR,SCT,0.00,WeatherDisplay:10.37,2013-05-06 05:55:00,
2013-05-06 01:56:00,65.7,59.7,29.93,South,174,1.1,1.1,81,0.00,CLR,SCT,0.00,WeatherDisplay:10.37,2013-05-06 05:56:00,
2013-05-06 01:59:00,65.7,59.7,29.92,SSE,163,0.0,0.0,81,0.00,CLR,SCT,0.00,WeatherDisplay:10.37,2013-05-06 05:59:00,
2013-05-06 02:00:00,65.7,59.7,29.93,SE,130,1.1,1.1,81,0.00,CLR,SCT,0.00,WeatherDisplay:10.37,2013-05-06 06:00:00,
2013-05-06 02:01:00,65.7,59.4,29.93,SE,129,0.0,0.0,80,0.00,CLR,SCT,0.00,WeatherDisplay:10.37,2013-05-06 06:01:00,
2013-05-06 02:04:00,65.8,59.8,29.92,SSW,204,2.3,2.3,81,0.00,CLR,SCT,0.00,WeatherDisplay:10.37,2013-05-06 06:04:00,
2013-05-06 02:05:00,65.8,59.8,29.92,South,183,3.5,3.5,81,0.00,CLR,SCT,0.00,WeatherDisplay:10.37,2013-05-06 06:05:00,
2013-05-06 02:06:00,65.8,59.8,29.92,South,169,1.1,1.1,81,0.00,CLR,SCT,0.00,WeatherDisplay:10.37,2013-05-06 06:06:00,
2013-05-06 02:07:00,65.9,59.6,29.92,SE,133,1.1,0.0,80,0.00,CLR,SCT,0.00,WeatherDisplay:10.37,2013-05-06 06:07:00,
2013-05-06 02:09:00,65.9,59.9,29.92,SE,145,1.1,1.1,81,0.00,CLR,SCT,0.00,WeatherDisplay:10.37,2013-05-06 06:09:00,
2013-05-06 02:10:00,65.9,59.9,29.92,SSE,158,1.1,0.0,81,0.00,CLR,SCT,0.00,WeatherDisplay:10.37,2013-05-06 06:10:00,
2013-05-06 02:11:00,65.9,59.9,29.92,SSE,167,0.0,0.0,81,0.00,CLR,SCT,0.00,WeatherDisplay:10.37,2013-05-06 06:11:00,
2013-05-06 02:12:00,65.9,59.9,29.92,SSE,166,0.0,0.0,81,0.00,CLR,SCT,0.00,WeatherDisplay:10.37,2013-05-06 06:12:00,
2013-05-06 02:14:00,66.0,60.0,29.92,ESE,106,1.1,1.1,81,0.00,CLR,SCT,0.00,WeatherDisplay:10.37,2013-05-06 06:14:00,
2013-05-06 02:16:00,66.0,60.0,29.92,SSW,212,3.5,3.5,81,0.00,CLR,SCT,0.00,WeatherDisplay:10.37,2013-05-06 06:16:00,
2013-05-06 02:17:00,66.0,60.0,29.92,ESE,122,3.5,3.5,81,0.00,CLR,SCT,0.00,WeatherDisplay:10.37,2013-05-06 06:17:00,
2013-05-06 02:19:00,66.1,60.1,29.92,WSW,249,2.3,2.3,81,0.00,CLR,SCT,0.00,WeatherDisplay:10.37,2013-05-06 06:19:00,
2013-05-06 02:21:00,66.1,60.1,29.92,SSW,201,2.3,2.3,81,0.00,CLR,SCT,0.00,WeatherDisplay:10.37,2013-05-06 06:21:00,
2013-05-06 02:22:00,66.1,60.1,29.92,South,187,3.0,3.0,81,0.00,CLR,SCT,0.00,WeatherDisplay:10.37,2013-05-06 06:22:00,
2013-05-06 02:23:00,66.2,60.2,29.92,South,190,3.5,3.5,81,0.00,CLR,SCT,0.00,WeatherDisplay:10.37,2013-05-06 06:23:00,
2013-05-06 02:24:00,66.2,60.2,29.92,SSE,163,3.5,3.5,81,0.00,CLR,SCT,0.00,WeatherDisplay:10.37,2013-05-06 06:24:00,
2013-05-06 02:26:00,66.2,60.2,29.92,SSW,210,2.0,2.0,81,0.00,CLR,SCT,0.00,WeatherDisplay:10.37,2013-05-06 06:26:00,
2013-05-06 02:27:00,66.2,60.2,29.92,SSW,193,2.3,2.3,81,0.00,CLR,SCT,0.00,WeatherDisplay:10.37,2013-05-06 06:27:00,
2013-05-06 02:28:00,66.2,60.2,29.92,SE,138,1.1,1.1,81,0.00,CLR,SCT,0.00,WeatherDisplay:10.37,2013-05-06 06:28:00,
2013-05-06 02:30:00,66.2,60.2,29.92,SE,139,0.0,0.0,81,0.00,CLR,SCT,0.00,WeatherDisplay:10.37,2013-05-06 06:30:00,
2013-05-06 02:31:00,66.2,60.2,29.92,SE,138,0.0,0.0,81,0.00,CLR,SCT,0.00,WeatherDisplay:10.37,2013-05-06 06:31:00,
2013-05-06 02:32:00,66.2,60.2,29.92,SE,139,1.1,0.0,81,0.00,CLR,SCT,0.00,WeatherDisplay:10.37,2013-05-06 06:32:00,
2013-05-06 02:33:00,66.2,60.2,29.92,SE,138,0.0,0.0,81,0.00,CLR,SCT,0.00,WeatherDisplay:10.37,2013-05-06 06:33:00,
2013-05-06 02:34:00,66.2,60.2,29.92,SE,138,0.0,0.0,81,0.00,CLR,SCT,0.00,WeatherDisplay:10.37,2013-05-06 06:34:00,
2013-05-06 02:35:00,66.3,60.3,29.92,SE,139,0.0,0.1,81,0.00,CLR,SCT,0.00,WeatherDisplay:10.37,2013-05-06 06:35:00,
2013-05-06 02:36:00,66.3,60.3,29.92,SE,134,1.1,1.1,81,0.00,CLR,SCT,0.00,WeatherDisplay:10.37,2013-05-06 06:36:00,
2013-05-06 02:37:00,66.3,60.3,29.92,SE,142,1.1,1.1,81,0.00,CLR,SCT,0.00,WeatherDisplay:10.37,2013-05-06 06:37:00,
2013-05-06 02:38:00,66.3,60.3,29.92,SSE,168,2.0,2.0,81,0.00,CLR,SCT,0.00,WeatherDisplay:10.37,2013-05-06 06:38:00,
2013-05-06 02:39:00,66.3,60.3,29.92,SW,222,2.3,2.3,81,0.00,CLR,SCT,0.00,WeatherDisplay:10.37,2013-05-06 06:39:00,
2013-05-06 02:40:00,66.3,60.3,29.92,SE,145,1.1,0.0,81,0.00,CLR,SCT,0.00,WeatherDisplay:10.37,2013-05-06 06:40:00,
2013-05-06 02:42:00,66.3,60.3,29.92,SSE,165,3.5,3.5,81,0.00,CLR,SCT,0.00,WeatherDisplay:10.37,2013-05-06 06:42:00,
2013-05-06 02:44:00,66.3,60.3,29.92,South,191,3.5,3.5,81,0.00,CLR,SCT,0.00,WeatherDisplay:10.37,2013-05-06 06:44:00,
2013-05-06 02:45:00,66.3,60.3,29.92,SSW,207,2.3,2.3,81,0.00,CLR,SCT,0.00,WeatherDisplay:10.37,2013-05-06 06:45:00,
2013-05-06 02:47:00,66.3,60.3,29.92,SSE,166,2.3,2.3,81,0.00,CLR,SCT,0.00,WeatherDisplay:10.37,2013-05-06 06:47:00,
2013-05-06 02:49:00,66.3,60.3,29.92,SSE,165,0.0,0.0,81,0.00,CLR,SCT,0.00,WeatherDisplay:10.37,2013-05-06 06:49:00,
2013-05-06 02:51:00,66.3,60.3,29.91,SSW,204,1.1,0.0,81,0.00,CLR,SCT,0.00,WeatherDisplay:10.37,2013-05-06 06:51:00,
2013-05-06 02:52:00,66.3,60.3,29.91,SSE,152,2.3,2.3,81,0.00,CLR,SCT,0.00,WeatherDisplay:10.37,2013-05-06 06:52:00,
2013-05-06 02:54:00,66.3,60.3,29.91,SW,229,2.3,2.3,81,0.00,CLR,SCT,0.00,WeatherDisplay:10.37,2013-05-06 06:54:00,
2013-05-06 02:56:00,66.3,60.3,29.91,SE,138,1.1,0.0,81,0.00,CLR,SCT,0.00,WeatherDisplay:10.37,2013-05-06 06:56:00,
2013-05-06 02:57:00,66.2,60.2,29.91,SE,139,0.0,0.0,81,0.00,CLR,SCT,0.00,WeatherDisplay:10.37,2013-05-06 06:57:00,
2013-05-06 02:58:00,66.2,60.2,29.91,SE,138,0.0,0.0,81,0.00,CLR,SCT,0.00,WeatherDisplay:10.37,2013-05-06 06:58:00,
2013-05-06 02:59:00,66.2,60.2,29.91,SSE,160,1.1,1.1,81,0.00,CLR,SCT,0.00,WeatherDisplay:10.37,2013-05-06 06:59:00,
2013-05-06 03:00:00,66.2,60.2,29.91,South,191,0.0,1.0,81,0.00,CLR,SCT,0.00,WeatherDisplay:10.37,2013-05-06 07:00:00,
2013-05-06 03:01:00,66.2,60.5,29.91,South,186,1.1,0.0,82,0.00,CLR,SCT,0.00,WeatherDisplay:10.37,2013-05-06 07:01:00,
2013-05-06 03:03:00,66.2,60.5,29.91,SSE,148,1.0,0.0,82,0.00,CLR,SCT,0.00,WeatherDisplay:10.37,2013-05-06 07:03:00,
2013-05-06 03:05:00,66.2,60.5,29.91,South,177,0.0,2.0,82,0.00,CLR,SCT,0.00,WeatherDisplay:10.37,2013-05-06 07:05:00,
2013-05-06 03:06:00,66.2,60.5,29.91,SSW,203,3.5,3.5,82,0.00,CLR,SCT,0.00,WeatherDisplay:10.37,2013-05-06 07:06:00,
2013-05-06 03:08:00,66.2,60.5,29.91,SSE,149,1.1,0.0,82,0.00,CLR,SCT,0.00,WeatherDisplay:10.37,2013-05-06 07:08:00,
2013-05-06 03:10:00,66.2,60.5,29.91,SSE,164,1.1,1.1,82,0.00,CLR,SCT,0.00,WeatherDisplay:10.37,2013-05-06 07:10:00,
2013-05-06 03:11:00,66.1,60.4,29.91,SSE,162,1.1,1.1,82,0.00,CLR,SCT,0.00,WeatherDisplay:10.37,2013-05-06 07:11:00,
2013-05-06 03:13:00,66.1,60.4,29.91,South,184,2.3,2.3,82,0.00,CLR,SCT,0.00,WeatherDisplay:10.37,2013-05-06 07:13:00,
2013-05-06 03:15:00,66.1,60.4,29.91,SSE,160,2.0,2.0,82,0.00,CLR,SCT,0.00,WeatherDisplay:10.37,2013-05-06 07:15:00,
2013-05-06 03:17:00,66.1,60.4,29.91,SE,131,3.5,3.5,82,0.00,CLR,SCT,0.00,WeatherDisplay:10.37,2013-05-06 07:17:00,
2013-05-06 03:18:00,66.0,60.3,29.91,SW,216,2.3,2.3,82,0.00,CLR,SCT,0.00,WeatherDisplay:10.37,2013-05-06 07:18:00,
2013-05-06 03:19:00,66.0,60.3,29.91,SW,215,2.3,2.3,82,0.00,CLR,SCT,0.00,WeatherDisplay:10.37,2013-05-06 07:19:00,
2013-05-06 03:20:00,66.0,60.3,29.91,South,169,2.3,2.3,82,0.00,CLR,SCT,0.00,WeatherDisplay:10.37,2013-05-06 07:20:00,
2013-05-06 03:22:00,66.0,60.3,29.91,SSE,150,2.3,2.3,82,0.00,CLR,SCT,0.00,WeatherDisplay:10.37,2013-05-06 07:22:00,
2013-05-06 03:24:00,66.0,60.3,29.91,SW,221,1.1,1.1,82,0.00,CLR,SCT,0.00,WeatherDisplay:10.37,2013-05-06 07:24:00,
2013-05-06 03:25:00,66.0,60.3,29.91,ESE,121,3.5,3.5,82,0.00,CLR,SCT,0.00,WeatherDisplay:10.37,2013-05-06 07:25:00,
2013-05-06 03:27:00,66.0,60.3,29.91,ESE,120,1.1,1.1,82,0.00,CLR,SCT,0.00,WeatherDisplay:10.37,2013-05-06 07:27:00,
2013-05-06 03:29:00,66.0,60.3,29.91,SE,139,1.1,1.1,82,0.00,CLR,SCT,0.00,WeatherDisplay:10.37,2013-05-06 07:29:00,
2013-05-06 03:30:00,65.9,60.2,29.91,SSE,150,2.0,2.0,82,0.00,CLR,SCT,0.00,WeatherDisplay:10.37,2013-05-06 07:30:00,
2013-05-06 03:31:00,65.9,60.2,29.91,SSE,152,2.3,2.3,82,0.00,CLR,SCT,0.00,WeatherDisplay:10.37,2013-05-06 07:31:00,
2013-05-06 03:32:00,65.9,60.2,29.91,SSE,150,0.0,0.0,82,0.00,CLR,SCT,0.00,WeatherDisplay:10.37,2013-05-06 07:32:00,
2013-05-06 03:34:00,65.8,60.2,29.91,SSE,153,0.0,0.0,82,0.00,CLR,SCT,0.00,WeatherDisplay:10.37,2013-05-06 07:34:00,
2013-05-06 03:35:00,65.7,60.1,29.91,SSW,197,0.0,0.0,82,0.00,CLR,SCT,0.00,WeatherDisplay:10.37,2013-05-06 07:35:00,
2013-05-06 03:36:00,65.7,60.1,29.91,South,191,2.3,2.3,82,0.00,CLR,SCT,0.00,WeatherDisplay:10.37,2013-05-06 07:36:00,
2013-05-06 03:37:00,65.6,60.3,29.91,South,189,3.5,3.5,83,0.00,CLR,SCT,0.00,WeatherDisplay:10.37,2013-05-06 07:37:00,
2013-05-06 03:39:00,65.5,60.2,29.91,SSE,156,0.0,0.0,83,0.00,CLR,SCT,0.00,WeatherDisplay:10.37,2013-05-06 07:39:00,
2013-05-06 03:41:00,65.5,60.2,29.91,SSE,158,0.0,0.0,83,0.00,CLR,SCT,0.00,WeatherDisplay:10.37,2013-05-06 07:41:00,
2013-05-06 03:43:00,65.4,60.1,29.91,SSE,152,0.0,0.0,83,0.00,CLR,SCT,0.00,WeatherDisplay:10.37,2013-05-06 07:43:00,
2013-05-06 03:44:00,65.3,60.0,29.91,South,181,0.0,0.0,83,0.00,CLR,SCT,0.00,WeatherDisplay:10.37,2013-05-06 07:44:00,
2013-05-06 03:46:00,65.3,60.3,29.91,South,181,0.0,0.0,84,0.00,CLR,SCT,0.00,WeatherDisplay:10.37,2013-05-06 07:46:00,
2013-05-06 03:47:00,65.2,60.2,29.91,SSW,198,0.0,0.0,84,0.00,CLR,SCT,0.00,WeatherDisplay:10.37,2013-05-06 07:47:00,
2013-05-06 03:48:00,65.2,60.2,29.91,SW,218,2.3,0.0,84,0.00,CLR,SCT,0.00,WeatherDisplay:10.37,2013-05-06 07:48:00,
2013-05-06 03:49:00,65.2,60.2,29.91,ENE,65,0.0,0.0,84,0.00,CLR,SCT,0.00,WeatherDisplay:10.37,2013-05-06 07:49:00,
2013-05-06 03:50:00,65.2,60.2,29.91,ENE,72,1.1,0.0,84,0.00,CLR,SCT,0.00,WeatherDisplay:10.37,2013-05-06 07:50:00,
2013-05-06 03:51:00,65.2,60.2,29.91,SSE,156,1.1,1.1,84,0.00,CLR,SCT,0.00,WeatherDisplay:10.37,2013-05-06 07:51:00,
2013-05-06 03:52:00,65.1,60.1,29.91,SSE,156,0.0,0.0,84,0.00,CLR,SCT,0.00,WeatherDisplay:10.37,2013-05-06 07:52:00,
2013-05-06 03:54:00,65.1,60.1,29.91,SSW,208,0.0,0.2,84,0.00,CLR,SCT,0.00,WeatherDisplay:10.37,2013-05-06 07:54:00,
2013-05-06 03:56:00,65.1,60.1,29.91,SSW,200,0.0,0.0,84,0.00,CLR,SCT,0.00,WeatherDisplay:10.37,2013-05-06 07:56:00,
2013-05-06 03:57:00,65.1,60.1,29.90,SSW,197,0.0,0.0,84,0.00,CLR,SCT,0.00,WeatherDisplay:10.37,2013-05-06 07:57:00,
2013-05-06 03:59:00,65.0,60.0,29.91,SSW,201,1.1,1.1,84,0.00,CLR,SCT,0.00,WeatherDisplay:10.37,2013-05-06 07:59:00,
2013-05-06 04:01:00,65.0,60.0,29.91,SSW,204,0.0,0.0,84,0.00,CLR,SCT,0.00,WeatherDisplay:10.37,2013-05-06 08:01:00,
2013-05-06 04:03:00,65.0,60.0,29.91,SSW,204,0.0,0.0,84,0.00,CLR,SCT,0.00,WeatherDisplay:10.37,2013-05-06 08:03:00,
2013-05-06 04:04:00,64.9,60.3,29.90,South,170,1.0,1.0,85,0.00,CLR,SCT,0.00,WeatherDisplay:10.37,2013-05-06 08:04:00,
2013-05-06 04:06:00,64.9,60.3,29.91,SSE,160,2.3,2.3,85,0.00,CLR,SCT,0.00,WeatherDisplay:10.37,2013-05-06 08:06:00,
2013-05-06 04:08:00,64.9,60.3,29.91,SSW,201,2.3,2.3,85,0.00,CLR,SCT,0.00,WeatherDisplay:10.37,2013-05-06 08:08:00,
2013-05-06 04:09:00,64.9,60.3,29.91,SSW,204,2.3,0.0,85,0.00,CLR,SCT,0.00,WeatherDisplay:10.37,2013-05-06 08:09:00,
2013-05-06 04:10:00,64.9,60.3,29.91,SSW,204,0.0,0.0,85,0.00,CLR,SCT,0.00,WeatherDisplay:10.37,2013-05-06 08:10:00,
2013-05-06 04:11:00,64.8,60.2,29.90,SSW,204,0.0,0.0,85,0.00,CLR,SCT,0.00,WeatherDisplay:10.37,2013-05-06 08:11:00,
2013-05-06 04:13:00,64.8,60.2,29.91,SSE,162,1.1,0.0,85,0.00,CLR,SCT,0.00,WeatherDisplay:10.37,2013-05-06 08:13:00,
2013-05-06 04:14:00,64.8,60.2,29.91,SSE,160,0.0,0.0,85,0.00,CLR,SCT,0.00,WeatherDisplay:10.37,2013-05-06 08:14:00,
2013-05-06 04:15:00,64.8,60.2,29.91,SSE,160,0.0,0.0,85,0.00,CLR,SCT,0.00,WeatherDisplay:10.37,2013-05-06 08:15:00,
2013-05-06 04:16:00,64.7,60.1,29.91,East,101,1.1,1.1,85,0.00,CLR,SCT,0.00,WeatherDisplay:10.37,2013-05-06 08:16:00,
2013-05-06 04:17:00,64.7,60.1,29.91,SE,129,1.1,0.0,85,0.00,CLR,SCT,0.00,WeatherDisplay:10.37,2013-05-06 08:17:00,
2013-05-06 04:18:00,64.7,60.1,29.91,SE,141,2.3,2.3,85,0.00,CLR,SCT,0.00,WeatherDisplay:10.37,2013-05-06 08:18:00,
2013-05-06 04:20:00,64.7,60.1,29.91,SE,141,0.0,0.0,85,0.00,CLR,SCT,0.00,WeatherDisplay:10.37,2013-05-06 08:20:00,
2013-05-06 04:22:00,64.7,60.4,29.91,SE,139,0.0,0.0,86,0.00,CLR,SCT,0.00,WeatherDisplay:10.37,2013-05-06 08:22:00,
2013-05-06 04:24:00,64.7,60.4,29.91,SSW,210,1.1,1.1,86,0.00,CLR,SCT,0.00,WeatherDisplay:10.37,2013-05-06 08:24:00,
2013-05-06 04:25:00,64.8,60.5,29.91,SSW,204,1.1,1.1,86,0.00,CLR,SCT,0.00,WeatherDisplay:10.37,2013-05-06 08:25:00,
2013-05-06 04:26:00,64.8,60.5,29.91,South,191,3.5,3.5,86,0.00,CLR,SCT,0.00,WeatherDisplay:10.37,2013-05-06 08:26:00,
2013-05-06 04:27:00,64.8,60.5,29.91,South,188,1.1,0.0,86,0.00,CLR,SCT,0.00,WeatherDisplay:10.37,2013-05-06 08:27:00,
2013-05-06 04:29:00,64.9,60.6,29.91,SSE,153,2.3,2.3,86,0.00,CLR,SCT,0.00,WeatherDisplay:10.37,2013-05-06 08:29:00,
2013-05-06 04:30:00,64.9,60.6,29.91,SSE,164,2.0,2.0,86,0.00,CLR,SCT,0.00,WeatherDisplay:10.37,2013-05-06 08:30:00,
2013-05-06 04:31:00,65.0,60.4,29.91,SSE,165,2.3,2.3,85,0.00,CLR,SCT,0.00,WeatherDisplay:10.37,2013-05-06 08:31:00,
2013-05-06 04:32:00,65.0,60.4,29.91,SSE,165,0.0,0.0,85,0.00,CLR,SCT,0.00,WeatherDisplay:10.37,2013-05-06 08:32:00,
2013-05-06 04:34:00,65.0,60.4,29.91,SW,229,2.3,2.3,85,0.00,CLR,SCT,0.00,WeatherDisplay:10.37,2013-05-06 08:34:00,
2013-05-06 04:35:00,65.0,60.4,29.91,SW,233,3.5,3.5,85,0.00,CLR,SCT,0.00,WeatherDisplay:10.37,2013-05-06 08:35:00,
2013-05-06 04:36:00,65.0,60.4,29.91,SW,233,1.1,0.0,85,0.00,CLR,SCT,0.00,WeatherDisplay:10.37,2013-05-06 08:36:00,
2013-05-06 04:37:00,64.9,60.3,29.91,SW,233,0.0,0.0,85,0.00,CLR,SCT,0.00,WeatherDisplay:10.37,2013-05-06 08:37:00,
2013-05-06 04:39:00,64.9,60.3,29.91,SW,218,1.1,1.1,85,0.00,CLR,SCT,0.00,WeatherDisplay:10.37,2013-05-06 08:39:00,
2013-05-06 04:41:00,64.9,60.3,29.91,SSW,210,0.0,0.0,85,0.00,CLR,SCT,0.00,WeatherDisplay:10.37,2013-05-06 08:41:00,
2013-05-06 04:42:00,64.9,60.3,29.91,SSW,207,1.1,0.0,85,0.00,CLR,SCT,0.00,WeatherDisplay:10.37,2013-05-06 08:42:00,
2013-05-06 04:45:00,64.8,60.5,29.91,SE,135,1.1,1.1,86,0.00,CLR,SCT,0.00,WeatherDisplay:10.37,2013-05-06 08:45:00,
2013-05-06 04:46:00,64.8,60.5,29.91,SE,135,0.0,0.0,86,0.00,CLR,SCT,0.00,WeatherDisplay:10.37,2013-05-06 08:46:00,
2013-05-06 04:47:00,64.8,60.5,29.91,SE,135,0.0,0.0,86,0.00,CLR,SCT,0.00,WeatherDisplay:10.37,2013-05-06 08:47:00,
2013-05-06 04:48:00,64.7,60.4,29.91,SE,135,0.0,0.0,86,0.00,CLR,SCT,0.00,WeatherDisplay:10.37,2013-05-06 08:48:00,
2013-05-06 04:50:00,64.7,60.4,29.91,SE,139,2.3,2.3,86,0.00,CLR,SCT,0.00,WeatherDisplay:10.37,2013-05-06 08:50:00,
2013-05-06 04:51:00,64.6,60.3,29.91,SSE,154,1.1,1.1,86,0.00,CLR,SCT,0.00,WeatherDisplay:10.37,2013-05-06 08:51:00,
2013-05-06 04:52:00,64.6,60.3,29.91,SSE,155,0.0,0.0,86,0.00,CLR,SCT,0.00,WeatherDisplay:10.37,2013-05-06 08:52:00,
2013-05-06 04:53:00,64.6,60.3,29.91,WSW,252,2.3,2.3,86,0.00,CLR,SCT,0.00,WeatherDisplay:10.37,2013-05-06 08:53:00,
2013-05-06 04:55:00,64.6,60.6,29.91,SSW,201,1.0,1.0,87,0.00,CLR,SCT,0.00,WeatherDisplay:10.37,2013-05-06 08:55:00,
2013-05-06 04:56:00,64.6,60.6,29.91,SSE,158,1.1,1.1,87,0.00,CLR,SCT,0.00,WeatherDisplay:10.37,2013-05-06 08:56:00,
2013-05-06 04:57:00,64.6,60.6,29.91,ESE,111,1.1,1.1,87,0.00,CLR,SCT,0.00,WeatherDisplay:10.37,2013-05-06 08:57:00,
2013-05-06 04:58:00,64.6,60.6,29.91,SE,129,1.1,1.1,87,0.00,CLR,SCT,0.00,WeatherDisplay:10.37,2013-05-06 08:58:00,
2013-05-06 05:01:00,64.5,60.5,29.92,SW,232,1.1,0.0,87,0.00,CLR,SCT,0.00,WeatherDisplay:10.37,2013-05-06 09:01:00,
2013-05-06 05:03:00,64.5,60.5,29.92,SW,232,0.0,0.2,87,0.00,CLR,SCT,0.00,WeatherDisplay:10.37,2013-05-06 09:03:00,
2013-05-06 05:04:00,64.5,60.5,29.92,SW,232,0.0,0.2,87,0.00,CLR,SCT,0.00,WeatherDisplay:10.37,2013-05-06 09:04:00,
2013-05-06 05:06:00,64.5,60.5,29.92,WSW,250,1.1,1.1,87,0.00,CLR,SCT,0.00,WeatherDisplay:10.37,2013-05-06 09:06:00,
2013-05-06 05:08:00,64.5,60.5,29.92,WSW,250,0.0,0.0,87,0.00,CLR,SCT,0.00,WeatherDisplay:10.37,2013-05-06 09:08:00,
2013-05-06 05:09:00,64.5,60.5,29.92,WSW,251,0.0,0.0,87,0.00,CLR,SCT,0.00,WeatherDisplay:10.37,2013-05-06 09:09:00,
2013-05-06 05:12:00,64.4,60.4,29.92,South,173,1.1,0.0,87,0.00,CLR,SCT,0.00,WeatherDisplay:10.37,2013-05-06 09:12:00,
2013-05-06 05:13:00,64.4,60.4,29.92,South,174,0.0,0.0,87,0.00,CLR,SCT,0.00,WeatherDisplay:10.37,2013-05-06 09:13:00,
2013-05-06 05:14:00,64.4,60.4,29.92,South,183,0.0,0.0,87,0.00,CLR,SCT,0.00,WeatherDisplay:10.37,2013-05-06 09:14:00,
2013-05-06 05:17:00,64.3,60.3,29.92,SSE,163,0.0,0.0,87,0.00,CLR,SCT,0.00,WeatherDisplay:10.37,2013-05-06 09:17:00,
2013-05-06 05:19:00,64.3,60.3,29.92,SSE,150,0.0,0.0,87,0.00,CLR,SCT,0.00,WeatherDisplay:10.37,2013-05-06 09:19:00,
2013-05-06 05:20:00,64.3,60.3,29.92,SSE,150,0.0,0.0,87,0.00,CLR,SCT,0.00,WeatherDisplay:10.37,2013-05-06 09:20:00,
2013-05-06 05:22:00,64.2,60.6,29.92,SSE,156,1.1,1.1,88,0.00,CLR,SCT,0.00,WeatherDisplay:10.37,2013-05-06 09:22:00,
2013-05-06 05:24:00,64.1,60.5,29.92,SSE,161,2.0,0.0,88,0.00,CLR,SCT,0.00,WeatherDisplay:10.37,2013-05-06 09:24:00,
2013-05-06 05:25:00,64.1,60.5,29.92,ESE,107,2.3,2.3,88,0.00,CLR,SCT,0.00,WeatherDisplay:10.37,2013-05-06 09:25:00,
2013-05-06 05:27:00,64.0,60.4,29.92,WSW,253,1.1,1.1,88,0.00,CLR,SCT,0.00,WeatherDisplay:10.37,2013-05-06 09:27:00,
2013-05-06 05:28:00,64.0,60.4,29.92,South,179,0.0,0.1,88,0.00,CLR,SCT,0.00,WeatherDisplay:10.37,2013-05-06 09:28:00,
2013-05-06 05:29:00,63.9,60.3,29.92,SW,215,1.1,1.1,88,0.00,CLR,SCT,0.00,WeatherDisplay:10.37,2013-05-06 09:29:00,
2013-05-06 05:30:00,63.9,60.3,29.92,SW,216,1.1,0.0,88,0.00,CLR,SCT,0.00,WeatherDisplay:10.37,2013-05-06 09:30:00,
2013-05-06 05:32:00,63.9,60.3,29.92,SW,215,0.0,0.0,88,0.00,CLR,SCT,0.00,WeatherDisplay:10.37,2013-05-06 09:32:00,
2013-05-06 05:33:00,63.8,60.2,29.92,SW,215,0.0,0.0,88,0.00,CLR,SCT,0.00,WeatherDisplay:10.37,2013-05-06 09:33:00,
2013-05-06 05:34:00,63.8,60.2,29.92,SW,215,0.0,0.0,88,0.00,CLR,SCT,0.00,WeatherDisplay:10.37,2013-05-06 09:34:00,
2013-05-06 05:36:00,63.7,60.4,29.92,SW,215,0.0,0.0,89,0.00,CLR,SCT,0.00,WeatherDisplay:10.37,2013-05-06 09:36:00,
2013-05-06 05:38:00,63.6,60.3,29.92,SW,215,0.0,0.0,89,0.00,CLR,SCT,0.00,WeatherDisplay:10.37,2013-05-06 09:38:00,
2013-05-06 05:39:00,63.6,60.3,29.92,SW,215,0.0,0.0,89,0.00,CLR,SCT,0.00,WeatherDisplay:10.37,2013-05-06 09:39:00,
2013-05-06 05:41:00,63.5,60.2,29.92,SW,216,0.0,0.0,89,0.00,CLR,SCT,0.00,WeatherDisplay:10.37,2013-05-06 09:41:00,
2013-05-06 05:43:00,63.5,60.2,29.92,SW,215,0.0,0.0,89,0.00,CLR,SCT,0.00,WeatherDisplay:10.37,2013-05-06 09:43:00,
2013-05-06 05:44:00,63.4,60.1,29.92,SW,214,0.0,0.0,89,0.00,CLR,SCT,0.00,WeatherDisplay:10.37,2013-05-06 09:44:00,
2013-05-06 05:45:00,63.4,60.1,29.93,SW,215,0.0,1.0,89,0.00,CLR,SCT,0.00,WeatherDisplay:10.37,2013-05-06 09:45:00,
2013-05-06 05:46:00,63.3,60.3,29.93,SW,214,0.0,0.0,90,0.00,CLR,SCT,0.00,WeatherDisplay:10.37,2013-05-06 09:46:00,
2013-05-06 05:48:00,63.3,60.3,29.93,SW,214,1.1,0.0,90,0.00,CLR,SCT,0.00,WeatherDisplay:10.37,2013-05-06 09:48:00,
2013-05-06 05:49:00,63.3,60.3,29.93,SW,214,0.0,0.0,90,0.00,CLR,SCT,0.00,WeatherDisplay:10.37,2013-05-06 09:49:00,
2013-05-06 05:50:00,63.3,60.3,29.93,SW,214,0.0,1.0,90,0.00,CLR,SCT,0.00,WeatherDisplay:10.37,2013-05-06 09:50:00,
2013-05-06 05:52:00,63.2,60.2,29.93,SSW,212,0.0,0.0,90,0.00,CLR,SCT,0.00,WeatherDisplay:10.37,2013-05-06 09:52:00,
2013-05-06 05:53:00,63.2,60.2,29.93,SSW,212,0.0,0.0,90,0.00,CLR,SCT,0.00,WeatherDisplay:10.37,2013-05-06 09:53:00,
2013-05-06 05:54:00,63.1,60.1,29.93,SSW,212,0.0,0.0,90,0.00,CLR,SCT,0.00,WeatherDisplay:10.37,2013-05-06 09:54:00,
2013-05-06 05:55:00,63.1,60.1,29.93,SSW,212,0.0,0.0,90,0.00,CLR,SCT,0.00,WeatherDisplay:10.37,2013-05-06 09:55:00,
2013-05-06 05:57:00,63.0,60.0,29.93,SW,214,0.0,0.0,90,0.00,CLR,SCT,0.00,WeatherDisplay:10.37,2013-05-06 09:57:00,
2013-05-06 05:58:00,63.0,60.0,29.93,SSW,195,0.0,0.0,90,0.00,CLR,SCT,0.00,WeatherDisplay:10.37,2013-05-06 09:58:00,
2013-05-06 05:59:00,63.0,60.0,29.93,SSW,195,0.0,0.0,90,0.00,CLR,SCT,0.00,WeatherDisplay:10.37,2013-05-06 09:59:00,
2013-05-06 06:00:00,63.0,60.0,29.93,SSW,208,0.0,0.0,90,0.00,CLR,SCT,0.00,WeatherDisplay:10.37,2013-05-06 10:00:00,
2013-05-06 06:02:00,62.9,60.2,29.93,SSW,196,0.0,0.0,91,0.00,CLR,SCT,0.00,WeatherDisplay:10.37,2013-05-06 10:02:00,
2013-05-06 06:03:00,62.8,60.1,29.93,SSW,195,0.0,0.0,91,0.00,CLR,SCT,0.00,WeatherDisplay:10.37,2013-05-06 10:03:00,
2013-05-06 06:04:00,62.8,60.1,29.93,SSW,195,0.0,0.0,91,0.00,CLR,SCT,0.00,WeatherDisplay:10.37,2013-05-06 10:04:00,
2013-05-06 06:05:00,62.8,60.1,29.93,SSW,195,0.0,0.0,91,0.00,CLR,SCT,0.00,WeatherDisplay:10.37,2013-05-06 10:05:00,
2013-05-06 06:08:00,62.7,60.0,29.93,SSW,195,0.0,0.0,91,0.00,CLR,SCT,0.00,WeatherDisplay:10.37,2013-05-06 10:08:00,
2013-05-06 06:09:00,62.7,60.0,29.93,SSW,198,0.0,0.0,91,0.00,CLR,SCT,0.00,WeatherDisplay:10.37,2013-05-06 10:09:00,
2013-05-06 06:10:00,62.7,60.0,29.93,SSW,194,0.0,0.0,91,0.00,CLR,SCT,0.00,WeatherDisplay:10.37,2013-05-06 10:10:00,
2013-05-06 06:11:00,62.6,59.9,29.93,SSW,194,0.0,0.0,91,0.00,CLR,SCT,0.00,WeatherDisplay:10.37,2013-05-06 10:11:00,
2013-05-06 06:13:00,62.6,59.9,29.94,SSW,194,0.0,0.0,91,0.00,CLR,SCT,0.00,WeatherDisplay:10.37,2013-05-06 10:13:00,
2013-05-06 06:14:00,62.6,59.9,29.94,SSW,194,0.0,0.0,91,0.00,CLR,SCT,0.00,WeatherDisplay:10.37,2013-05-06 10:14:00,
2013-05-06 06:15:00,62.5,59.8,29.94,SSW,194,0.0,0.0,91,0.00,CLR,SCT,0.00,WeatherDisplay:10.37,2013-05-06 10:15:00,
2013-05-06 06:16:00,62.5,59.8,29.94,SSW,194,0.0,0.0,91,0.00,CLR,SCT,0.00,WeatherDisplay:10.37,2013-05-06 10:16:00,
2013-05-06 06:18:00,62.4,59.7,29.94,SSW,200,0.0,0.0,91,0.00,CLR,SCT,0.00,WeatherDisplay:10.37,2013-05-06 10:18:00,
2013-05-06 06:19:00,62.4,60.0,29.94,SSE,148,2.0,2.0,92,0.00,CLR,SCT,0.00,WeatherDisplay:10.37,2013-05-06 10:19:00,
2013-05-06 06:20:00,62.4,60.0,29.94,South,183,0.0,2.0,92,0.00,CLR,SCT,0.00,WeatherDisplay:10.37,2013-05-06 10:20:00,
2013-05-06 06:21:00,62.4,60.0,29.94,SW,225,0.0,0.0,92,0.00,CLR,SCT,0.00,WeatherDisplay:10.37,2013-05-06 10:21:00,
2013-05-06 06:24:00,62.4,60.0,29.94,SW,225,0.0,0.0,92,0.00,CLR,SCT,0.00,WeatherDisplay:10.37,2013-05-06 10:24:00,
2013-05-06 06:25:00,62.4,60.0,29.94,SW,225,0.0,0.0,92,0.00,CLR,SCT,0.00,WeatherDisplay:10.37,2013-05-06 10:25:00,
2013-05-06 06:26:00,62.4,60.0,29.94,SW,225,0.0,0.0,92,0.00,CLR,SCT,0.00,WeatherDisplay:10.37,2013-05-06 10:26:00,
2013-05-06 06:29:00,62.3,59.9,29.94,SW,225,0.0,0.0,92,0.00,CLR,SCT,0.00,WeatherDisplay:10.37,2013-05-06 10:29:00,
2013-05-06 06:30:00,62.3,59.9,29.94,SW,225,0.0,0.0,92,0.00,CLR,SCT,0.00,WeatherDisplay:10.37,2013-05-06 10:30:00,
2013-05-06 06:31:00,62.3,59.9,29.94,SW,225,0.0,0.0,92,0.00,CLR,SCT,0.00,WeatherDisplay:10.37,2013-05-06 10:31:00,
2013-05-06 06:34:00,62.2,59.8,29.94,SW,225,0.0,0.0,92,0.00,CLR,SCT,0.00,WeatherDisplay:10.37,2013-05-06 10:34:00,
2013-05-06 06:35:00,62.2,59.8,29.94,SW,225,0.0,0.0,92,0.00,CLR,SCT,0.00,WeatherDisplay:10.37,2013-05-06 10:35:00,
2013-05-06 06:37:00,62.1,59.7,29.94,SW,225,0.0,0.0,92,0.00,CLR,SCT,0.00,WeatherDisplay:10.37,2013-05-06 10:37:00,
2013-05-06 06:39:00,62.1,59.7,29.94,SW,215,0.0,0.0,92,0.00,CLR,SCT,0.00,WeatherDisplay:10.37,2013-05-06 10:39:00,
2013-05-06 06:40:00,62.1,59.7,29.95,SW,216,0.0,0.0,92,0.00,CLR,SCT,0.00,WeatherDisplay:10.37,2013-05-06 10:40:00,
2013-05-06 06:42:00,62.0,59.6,29.95,SW,215,0.0,0.0,92,0.00,CLR,SCT,0.00,WeatherDisplay:10.37,2013-05-06 10:42:00,
2013-05-06 06:44:00,61.9,59.5,29.95,SW,215,0.0,0.0,92,0.00,CLR,SCT,0.00,WeatherDisplay:10.37,2013-05-06 10:44:00,
2013-05-06 06:45:00,61.9,59.5,29.95,SW,215,0.0,0.0,92,0.00,CLR,SCT,0.00,WeatherDisplay:10.37,2013-05-06 10:45:00,
2013-05-06 06:46:00,61.9,59.5,29.95,SW,215,0.0,0.0,92,0.00,CLR,SCT,0.00,WeatherDisplay:10.37,2013-05-06 10:46:00,
2013-05-06 06:47:00,61.8,59.5,29.95,SW,215,0.0,0.0,92,0.00,CLR,SCT,0.00,WeatherDisplay:10.37,2013-05-06 10:47:00,
2013-05-06 06:49:00,61.9,59.9,29.95,SW,215,0.0,0.0,93,0.00,CLR,SCT,0.00,WeatherDisplay:10.37,2013-05-06 10:49:00,
2013-05-06 06:50:00,61.9,59.8,29.95,SW,215,0.0,0.0,93,0.00,CLR,SCT,0.00,WeatherDisplay:10.37,2013-05-06 10:50:00,
2013-05-06 06:51:00,61.8,59.8,29.95,SW,215,0.0,0.0,93,0.00,CLR,SCT,0.00,WeatherDisplay:10.37,2013-05-06 10:51:00,
2013-05-06 06:52:00,61.8,59.8,29.95,SW,215,0.0,0.0,93,0.00,CLR,SCT,0.00,WeatherDisplay:10.37,2013-05-06 10:52:00,
2013-05-06 06:54:00,61.8,59.8,29.95,SW,215,0.0,0.0,93,0.00,CLR,SCT,0.00,WeatherDisplay:10.37,2013-05-06 10:54:00,
2013-05-06 06:55:00,61.8,59.8,29.95,SW,215,0.0,0.0,93,0.00,CLR,SCT,0.00,WeatherDisplay:10.37,2013-05-06 10:55:00,
2013-05-06 06:56:00,61.8,59.8,29.95,SW,215,0.0,0.0,93,0.00,CLR,SCT,0.00,WeatherDisplay:10.37,2013-05-06 10:56:00,
2013-05-06 06:57:00,61.7,59.7,29.96,SW,215,0.0,0.0,93,0.00,CLR,SCT,0.00,WeatherDisplay:10.37,2013-05-06 10:57:00,
2013-05-06 06:59:00,61.7,59.7,29.96,SW,215,0.0,0.0,93,0.00,CLR,SCT,0.00,WeatherDisplay:10.37,2013-05-06 10:59:00,
2013-05-06 07:00:00,61.7,59.7,29.96,SW,215,0.0,0.0,93,0.00,CLR,SCT,0.00,WeatherDisplay:10.37,2013-05-06 11:00:00,
2013-05-06 07:01:00,61.7,59.7,29.95,SW,214,0.0,0.0,93,0.00,CLR,SCT,0.00,WeatherDisplay:10.37,2013-05-06 11:01:00,
2013-05-06 07:02:00,61.7,59.7,29.96,SW,215,1.1,0.0,93,0.00,CLR,SCT,0.00,WeatherDisplay:10.37,2013-05-06 11:02:00,
2013-05-06 07:04:00,61.7,59.7,29.96,SW,215,0.0,0.0,93,0.00,CLR,SCT,0.00,WeatherDisplay:10.37,2013-05-06 11:04:00,
2013-05-06 07:05:00,61.7,59.7,29.96,SW,215,0.0,0.0,93,0.00,CLR,SCT,0.00,WeatherDisplay:10.37,2013-05-06 11:05:00,
2013-05-06 07:06:00,61.7,59.7,29.96,SW,215,0.0,0.0,93,0.00,CLR,SCT,0.00,WeatherDisplay:10.37,2013-05-06 11:06:00,
2013-05-06 07:07:00,61.7,59.7,29.96,SW,215,0.0,0.0,93,0.00,CLR,SCT,0.00,WeatherDisplay:10.37,2013-05-06 11:07:00,
2013-05-06 07:09:00,61.7,59.7,29.96,SW,215,0.0,0.0,93,0.00,CLR,SCT,0.00,WeatherDisplay:10.37,2013-05-06 11:09:00,
2013-05-06 07:10:00,61.7,59.7,29.96,SW,215,0.0,0.0,93,0.00,CLR,SCT,0.00,WeatherDisplay:10.37,2013-05-06 11:10:00,
2013-05-06 07:11:00,61.8,60.1,29.96,SW,215,0.0,0.0,94,0.00,CLR,SCT,0.00,WeatherDisplay:10.37,2013-05-06 11:11:00,
2013-05-06 07:12:00,61.8,60.1,29.96,SW,215,0.0,0.0,94,0.00,CLR,SCT,0.00,WeatherDisplay:10.37,2013-05-06 11:12:00,
2013-05-06 07:15:00,61.9,60.2,29.96,SW,215,0.0,0.0,94,0.00,CLR,SCT,0.00,WeatherDisplay:10.37,2013-05-06 11:15:00,
2013-05-06 07:17:00,61.9,60.2,29.96,SW,215,0.0,0.0,94,0.00,CLR,SCT,0.00,WeatherDisplay:10.37,2013-05-06 11:17:00,
2013-05-06 07:18:00,62.0,60.3,29.96,SW,215,0.0,0.0,94,0.00,CLR,SCT,0.00,WeatherDisplay:10.37,2013-05-06 11:18:00,
2013-05-06 07:20:00,62.1,60.4,29.96,SW,215,0.0,0.0,94,0.00,CLR,SCT,0.00,WeatherDisplay:10.37,2013-05-06 11:20:00,
2013-05-06 07:22:00,62.1,60.4,29.96,SW,214,0.0,0.0,94,0.00,CLR,SCT,0.00,WeatherDisplay:10.37,2013-05-06 11:22:00,
2013-05-06 07:23:00,62.2,60.5,29.97,SW,215,0.0,0.0,94,0.00,CLR,SCT,0.00,WeatherDisplay:10.37,2013-05-06 11:23:00,
2013-05-06 07:25:00,62.3,60.6,29.96,South,188,1.1,1.1,94,0.00,CLR,SCT,0.00,WeatherDisplay:10.37,2013-05-06 11:25:00,
2013-05-06 07:28:00,62.4,60.3,29.96,SE,142,0.0,0.0,93,0.00,CLR,SCT,0.00,WeatherDisplay:10.37,2013-05-06 11:28:00,
2013-05-06 07:30:00,62.5,60.4,29.97,South,187,0.0,0.0,93,0.00,CLR,SCT,0.00,WeatherDisplay:10.37,2013-05-06 11:30:00,
2013-05-06 07:31:00,62.6,60.5,29.97,South,188,0.0,0.0,93,0.00,CLR,SCT,0.00,WeatherDisplay:10.37,2013-05-06 11:31:00,
2013-05-06 07:33:00,62.7,60.6,29.97,SE,135,0.0,0.0,93,0.00,CLR,SCT,0.00,WeatherDisplay:10.37,2013-05-06 11:33:00,
2013-05-06 07:35:00,62.9,60.5,29.97,NE,53,1.1,1.1,92,0.00,CLR,SCT,0.00,WeatherDisplay:10.37,2013-05-06 11:35:00,
2013-05-06 07:36:00,62.9,60.5,29.97,NE,52,0.0,0.0,92,0.00,CLR,SCT,0.00,WeatherDisplay:10.37,2013-05-06 11:36:00,
2013-05-06 07:38:00,63.1,60.7,29.97,WNW,288,1.1,0.0,92,0.00,CLR,SCT,0.00,WeatherDisplay:10.37,2013-05-06 11:38:00,
2013-05-06 07:40:00,63.3,60.6,29.97,NNE,25,0.0,0.1,91,0.00,CLR,SCT,0.00,WeatherDisplay:10.37,2013-05-06 11:40:00,
2013-05-06 07:41:00,63.4,60.7,29.97,SW,235,1.1,1.1,91,0.00,CLR,SCT,0.00,WeatherDisplay:10.37,2013-05-06 11:41:00,
2013-05-06 07:43:00,63.5,60.5,29.97,ENE,58,1.1,1.1,90,0.00,CLR,SCT,0.00,WeatherDisplay:10.37,2013-05-06 11:43:00,
2013-05-06 07:44:00,63.5,60.5,29.97,NE,51,1.1,1.1,90,0.00,CLR,SCT,0.00,WeatherDisplay:10.37,2013-05-06 11:44:00,
2013-05-06 07:45:00,63.7,60.4,29.98,NNE,18,3.5,3.5,89,0.00,CLR,SCT,0.00,WeatherDisplay:10.37,2013-05-06 11:45:00,
2013-05-06 07:46:00,63.7,60.4,29.98,NE,53,1.1,0.0,89,0.00,CLR,SCT,0.00,WeatherDisplay:10.37,2013-05-06 11:46:00,
2013-05-06 07:48:00,63.8,60.5,29.98,NE,36,1.1,1.1,89,0.00,CLR,SCT,0.00,WeatherDisplay:10.37,2013-05-06 11:48:00,
2013-05-06 07:49:00,63.8,60.2,29.98,NNW,335,1.1,0.0,88,0.00,CLR,SCT,0.00,WeatherDisplay:10.37,2013-05-06 11:49:00,
2013-05-06 07:50:00,64.0,60.1,29.98,NNW,335,0.0,0.0,87,0.00,CLR,SCT,0.00,WeatherDisplay:10.37,2013-05-06 11:50:00,
2013-05-06 07:51:00,64.0,60.1,29.98,NNW,335,0.0,0.0,87,0.00,CLR,SCT,0.00,WeatherDisplay:10.37,2013-05-06 11:51:00,
2013-05-06 07:53:00,64.3,60.0,29.98,NNE,16,1.1,1.1,86,0.00,CLR,SCT,0.00,WeatherDisplay:10.37,2013-05-06 11:53:00,
2013-05-06 07:54:00,64.5,59.6,29.98,NNE,16,1.1,0.0,84,0.00,CLR,SCT,0.00,WeatherDisplay:10.37,2013-05-06 11:54:00,
2013-05-06 07:55:00,64.6,59.3,29.98,NE,50,0.0,0.1,83,0.00,CLR,SCT,0.00,WeatherDisplay:10.37,2013-05-06 11:55:00,
2013-05-06 07:56:00,64.7,59.1,29.98,NE,53,1.1,1.1,82,0.00,CLR,SCT,0.00,WeatherDisplay:10.37,2013-05-06 11:56:00,
2013-05-06 07:58:00,65.0,58.7,29.98,NE,46,1.1,1.1,80,0.00,CLR,SCT,0.00,WeatherDisplay:10.37,2013-05-06 11:58:00,
2013-05-06 07:59:00,65.2,58.9,29.98,NW,324,2.3,2.3,80,0.00,CLR,SCT,0.00,WeatherDisplay:10.37,2013-05-06 11:59:00,
2013-05-06 08:00:00,65.2,58.5,29.98,NW,325,0.0,0.0,79,0.00,CLR,SCT,0.00,WeatherDisplay:10.37,2013-05-06 12:00:00,
2013-05-06 08:01:00,65.5,59.2,29.98,NW,325,0.0,0.0,80,0.00,CLR,SCT,0.00,WeatherDisplay:10.37,2013-05-06 12:01:00,
2013-05-06 08:03:00,65.7,58.7,29.98,NNE,22,3.5,3.5,78,0.00,CLR,SCT,0.00,WeatherDisplay:10.37,2013-05-06 12:03:00,
2013-05-06 08:04:00,65.8,58.4,29.98,NNE,22,0.0,0.0,77,0.00,CLR,SCT,0.00,WeatherDisplay:10.37,2013-05-06 12:04:00,
2013-05-06 08:05:00,65.9,58.5,29.98,NE,42,0.0,0.0,77,0.00,CLR,SCT,0.00,WeatherDisplay:10.37,2013-05-06 12:05:00,
2013-05-06 08:06:00,66.0,58.6,29.98,NE,43,0.0,0.0,77,0.00,CLR,SCT,0.00,WeatherDisplay:10.37,2013-05-06 12:06:00,
2013-05-06 08:08:00,66.2,58.4,29.98,NNE,20,1.1,0.0,76,0.00,CLR,SCT,0.00,WeatherDisplay:10.37,2013-05-06 12:08:00,
2013-05-06 08:09:00,66.3,58.5,29.98,NNE,20,0.0,0.0,76,0.00,CLR,SCT,0.00,WeatherDisplay:10.37,2013-05-06 12:09:00,
2013-05-06 08:10:00,66.5,58.7,29.98,NNE,20,0.0,0.0,76,0.00,CLR,SCT,0.00,WeatherDisplay:10.37,2013-05-06 12:10:00,
2013-05-06 08:11:00,66.6,58.4,29.98,NNE,32,0.0,0.0,75,0.00,CLR,SCT,0.00,WeatherDisplay:10.37,2013-05-06 12:11:00,
2013-05-06 08:14:00,67.0,58.4,29.99,NNE,20,1.1,0.0,74,0.00,CLR,SCT,0.00,WeatherDisplay:10.37,2013-05-06 12:14:00,
2013-05-06 08:15:00,67.2,58.2,29.99,NE,40,1.1,1.1,73,0.00,CLR,SCT,0.00,WeatherDisplay:10.37,2013-05-06 12:15:00,
2013-05-06 08:16:00,67.2,57.9,29.99,NE,44,1.1,1.1,72,0.00,CLR,SCT,0.00,WeatherDisplay:10.37,2013-05-06 12:16:00,
2013-05-06 08:17:00,67.2,57.9,29.99,ENE,59,1.1,1.1,72,0.00,CLR,SCT,0.00,WeatherDisplay:10.37,2013-05-06 12:17:00,
2013-05-06 08:19:00,67.2,57.5,29.99,NNE,30,0.0,0.0,71,0.00,CLR,SCT,0.00,WeatherDisplay:10.37,2013-05-06 12:19:00,
2013-05-06 08:20:00,67.1,57.4,29.99,NNW,340,0.0,0.0,71,0.00,CLR,SCT,0.00,WeatherDisplay:10.37,2013-05-06 12:20:00,
2013-05-06 08:21:00,67.1,57.4,29.99,NNE,33,1.1,1.1,71,0.00,CLR,SCT,0.00,WeatherDisplay:10.37,2013-05-06 12:21:00,
2013-05-06 08:22:00,67.1,57.4,29.99,NE,41,1.1,1.1,71,0.00,CLR,SCT,0.00,WeatherDisplay:10.37,2013-05-06 12:22:00,
2013-05-06 08:24:00,67.1,57.4,29.99,NE,36,1.1,1.1,71,0.00,CLR,SCT,0.00,WeatherDisplay:10.37,2013-05-06 12:24:00,
2013-05-06 08:25:00,67.1,57.4,29.99,North,356,1.1,1.1,71,0.00,CLR,SCT,0.00,WeatherDisplay:10.37,2013-05-06 12:25:00,
2013-05-06 08:26:00,67.1,57.8,29.99,North,10,1.1,0.0,72,0.00,CLR,SCT,0.00,WeatherDisplay:10.37,2013-05-06 12:26:00,
2013-05-06 08:27:00,67.2,57.5,29.99,NNE,15,1.1,1.1,71,0.00,CLR,SCT,0.00,WeatherDisplay:10.37,2013-05-06 12:27:00,
2013-05-06 08:29:00,67.2,57.5,29.99,NE,41,1.1,1.1,71,0.00,CLR,SCT,0.00,WeatherDisplay:10.37,2013-05-06 12:29:00,
2013-05-06 08:30:00,67.2,57.1,29.99,NE,44,1.1,1.1,70,0.00,CLR,SCT,0.00,WeatherDisplay:10.37,2013-05-06 12:30:00,
2013-05-06 08:31:00,67.2,57.1,29.99,North,3,1.1,1.1,70,0.00,CLR,SCT,0.00,WeatherDisplay:10.37,2013-05-06 12:31:00,
2013-05-06 08:32:00,67.1,57.0,29.99,North,11,1.1,1.1,70,0.00,CLR,SCT,0.00,WeatherDisplay:10.37,2013-05-06 12:32:00,
2013-05-06 08:35:00,67.3,57.2,29.99,NNE,26,0.0,0.0,70,0.00,CLR,SCT,0.00,WeatherDisplay:10.37,2013-05-06 12:35:00,
2013-05-06 08:36:00,67.4,57.3,29.99,NE,46,1.1,1.1,70,0.00,CLR,SCT,0.00,WeatherDisplay:10.37,2013-05-06 12:36:00,
2013-05-06 08:37:00,67.4,57.3,29.99,NNE,26,0.0,0.0,70,0.00,CLR,SCT,0.00,WeatherDisplay:10.37,2013-05-06 12:37:00,
2013-05-06 08:38:00,67.5,57.4,29.99,NNE,25,0.0,0.0,70,0.00,CLR,SCT,0.00,WeatherDisplay:10.37,2013-05-06 12:38:00,
2013-05-06 08:40:00,67.8,57.7,30.00,NE,40,0.0,0.0,70,0.00,CLR,SCT,0.00,WeatherDisplay:10.37,2013-05-06 12:40:00,
2013-05-06 08:41:00,67.9,57.4,29.99,NE,46,1.1,1.1,69,0.00,CLR,SCT,0.00,WeatherDisplay:10.37,2013-05-06 12:41:00,
2013-05-06 08:42:00,68.0,57.4,29.99,NE,44,1.1,0.0,69,0.00,CLR,SCT,0.00,WeatherDisplay:10.37,2013-05-06 12:42:00,
2013-05-06 08:43:00,68.0,57.4,29.99,NE,44,1.1,0.0,69,0.00,CLR,SCT,0.00,WeatherDisplay:10.37,2013-05-06 12:43:00,
2013-05-06 08:45:00,68.2,57.2,29.99,NE,37,0.0,0.0,68,0.00,CLR,SCT,0.00,WeatherDisplay:10.37,2013-05-06 12:45:00,
2013-05-06 08:46:00,68.4,57.8,29.99,NNW,345,0.0,0.8,69,0.00,CLR,SCT,0.00,WeatherDisplay:10.37,2013-05-06 12:46:00,
2013-05-06 08:47:00,68.4,57.0,29.99,NNE,26,4.6,4.6,67,0.00,CLR,SCT,0.00,WeatherDisplay:10.37,2013-05-06 12:47:00,
2013-05-06 08:48:00,68.4,57.0,29.99,NNE,24,1.1,1.1,67,0.00,CLR,SCT,0.00,WeatherDisplay:10.37,2013-05-06 12:48:00,
2013-05-06 08:50:00,68.4,56.6,30.00,NE,38,1.1,0.0,66,0.00,CLR,SCT,0.00,WeatherDisplay:10.37,2013-05-06 12:50:00,
2013-05-06 08:51:00,68.4,56.6,29.99,NW,325,1.1,1.1,66,0.00,CLR,SCT,0.00,WeatherDisplay:10.37,2013-05-06 12:51:00,
2013-05-06 08:52:00,68.4,56.6,29.99,NNE,16,1.1,1.1,66,0.00,CLR,SCT,0.00,WeatherDisplay:10.37,2013-05-06 12:52:00,
2013-05-06 08:53:00,68.4,56.6,29.99,NNE,16,1.1,1.1,66,0.00,CLR,SCT,0.00,WeatherDisplay:10.37,2013-05-06 12:53:00,
2013-05-06 08:55:00,68.5,57.1,29.99,NW,314,0.0,0.0,67,0.00,CLR,SCT,0.00,WeatherDisplay:10.37,2013-05-06 12:55:00,
2013-05-06 08:56:00,68.6,57.2,29.99,SSW,212,0.0,0.0,67,0.00,CLR,SCT,0.00,WeatherDisplay:10.37,2013-05-06 12:56:00,
2013-05-06 08:58:00,68.8,56.6,29.99,NE,40,2.3,2.3,65,0.00,CLR,SCT,0.00,WeatherDisplay:10.37,2013-05-06 12:58:00,
2013-05-06 09:00:00,69.0,56.7,29.99,SSE,162,1.1,1.1,65,0.00,CLR,SCT,0.00,WeatherDisplay:10.37,2013-05-06 13:00:00,
2013-05-06 09:01:00,69.1,57.3,29.99,SE,142,1.1,0.0,66,0.00,CLR,SCT,0.00,WeatherDisplay:10.37,2013-05-06 13:01:00,
2013-05-06 09:03:00,69.3,57.0,29.99,NNE,30,1.1,1.1,65,0.00,CLR,SCT,0.00,WeatherDisplay:10.37,2013-05-06 13:03:00,
2013-05-06 09:05:00,69.4,56.7,29.99,NE,51,1.1,0.0,64,0.00,CLR,SCT,0.00,WeatherDisplay:10.37,2013-05-06 13:05:00,
2013-05-06 09:07:00,69.4,56.7,29.99,NE,50,1.0,0.0,64,0.00,CLR,SCT,0.00,WeatherDisplay:10.37,2013-05-06 13:07:00,
2013-05-06 09:08:00,69.5,56.8,29.99,NNE,14,1.1,1.1,64,0.00,CLR,SCT,0.00,WeatherDisplay:10.37,2013-05-06 13:08:00,
2013-05-06 09:10:00,69.6,56.4,29.99,SE,131,1.1,1.1,63,0.00,CLR,SCT,0.00,WeatherDisplay:10.37,2013-05-06 13:10:00,
2013-05-06 09:12:00,69.6,56.9,29.99,ENE,66,2.3,2.3,64,0.00,CLR,SCT,0.00,WeatherDisplay:10.37,2013-05-06 13:12:00,
2013-05-06 09:13:00,69.7,56.1,29.99,NE,44,1.1,1.1,62,0.00,CLR,SCT,0.00,WeatherDisplay:10.37,2013-05-06 13:13:00,
2013-05-06 09:16:00,69.6,56.4,30.00,NNE,25,1.1,0.0,63,0.00,CLR,SCT,0.00,WeatherDisplay:10.37,2013-05-06 13:16:00,
2013-05-06 09:17:00,69.6,56.4,30.00,SW,228,1.1,0.0,63,0.00,CLR,SCT,0.00,WeatherDisplay:10.37,2013-05-06 13:17:00,
2013-05-06 09:18:00,69.7,56.5,30.00,SSE,164,1.1,0.0,63,0.00,CLR,SCT,0.00,WeatherDisplay:10.37,2013-05-06 13:18:00,
2013-05-06 09:19:00,69.8,56.6,30.00,East,99,1.1,0.0,63,0.00,CLR,SCT,0.00,WeatherDisplay:10.37,2013-05-06 13:19:00,
2013-05-06 09:21:00,69.9,55.8,30.00,NNE,30,1.1,1.1,61,0.00,CLR,SCT,0.00,WeatherDisplay:10.37,2013-05-06 13:21:00,
2013-05-06 09:22:00,69.8,56.2,30.00,NNE,33,1.1,0.0,62,0.00,CLR,SCT,0.00,WeatherDisplay:10.37,2013-05-06 13:22:00,
2013-05-06 09:23:00,69.8,56.2,30.00,ENE,58,1.0,1.0,62,0.00,CLR,SCT,0.00,WeatherDisplay:10.37,2013-05-06 13:23:00,
2013-05-06 09:24:00,69.8,56.2,30.00,ENE,58,0.0,0.6,62,0.00,CLR,SCT,0.00,WeatherDisplay:10.37,2013-05-06 13:24:00,
2013-05-06 09:26:00,69.8,56.2,30.00,NNE,18,1.1,1.1,62,0.00,CLR,SCT,0.00,WeatherDisplay:10.37,2013-05-06 13:26:00,
2013-05-06 09:28:00,69.8,56.6,30.00,NNE,27,0.0,0.0,63,0.00,CLR,SCT,0.00,WeatherDisplay:10.37,2013-05-06 13:28:00,
2013-05-06 09:29:00,69.8,56.6,30.00,NNE,27,0.0,0.0,63,0.00,CLR,SCT,0.00,WeatherDisplay:10.37,2013-05-06 13:29:00,
2013-05-06 09:31:00,70.1,56.9,30.00,NNW,341,0.0,0.0,63,0.00,CLR,SCT,0.00,WeatherDisplay:10.37,2013-05-06 13:31:00,
2013-05-06 09:33:00,70.3,56.7,30.00,NNE,32,0.0,0.0,62,0.00,CLR,SCT,0.00,WeatherDisplay:10.37,2013-05-06 13:33:00,
2013-05-06 09:34:00,70.5,56.9,30.00,NE,53,1.1,0.0,62,0.00,CLR,SCT,0.00,WeatherDisplay:10.37,2013-05-06 13:34:00,
2013-05-06 09:36:00,70.8,57.6,30.00,WNW,291,0.0,0.6,63,0.00,CLR,SCT,0.00,WeatherDisplay:10.37,2013-05-06 13:36:00,
2013-05-06 09:39:00,70.9,56.8,30.00,North,356,1.1,0.0,61,0.00,CLR,SCT,0.00,WeatherDisplay:10.37,2013-05-06 13:39:00,
2013-05-06 09:41:00,70.8,55.8,30.00,NE,34,1.1,1.1,59,0.00,CLR,SCT,0.00,WeatherDisplay:10.37,2013-05-06 13:41:00,
2013-05-06 09:44:00,70.7,56.6,30.00,NE,36,1.1,1.1,61,0.00,CLR,SCT,0.00,WeatherDisplay:10.37,2013-05-06 13:44:00,
2013-05-06 09:45:00,70.7,56.1,30.00,East,80,1.1,1.1,60,0.00,CLR,SCT,0.00,WeatherDisplay:10.37,2013-05-06 13:45:00,
2013-05-06 09:46:00,70.6,56.0,30.00,WSW,238,1.1,1.1,60,0.00,CLR,SCT,0.00,WeatherDisplay:10.37,2013-05-06 13:46:00,
2013-05-06 09:49:00,70.6,56.0,30.00,SSE,151,1.1,1.1,60,0.00,CLR,SCT,0.00,WeatherDisplay:10.37,2013-05-06 13:49:00,
2013-05-06 09:50:00,70.6,56.0,30.00,NE,56,0.0,2.0,60,0.00,CLR,SCT,0.00,WeatherDisplay:10.37,2013-05-06 13:50:00,
2013-05-06 09:52:00,70.7,56.6,30.00,NNE,12,1.1,0.0,61,0.00,CLR,SCT,0.00,WeatherDisplay:10.37,2013-05-06 13:52:00,
2013-05-06 09:54:00,70.7,56.6,30.00,NE,49,1.1,1.1,61,0.00,CLR,SCT,0.00,WeatherDisplay:10.37,2013-05-06 13:54:00,
2013-05-06 09:55:00,70.7,56.6,30.00,NE,40,1.1,1.1,61,0.00,CLR,SCT,0.00,WeatherDisplay:10.37,2013-05-06 13:55:00,
2013-05-06 09:57:00,70.9,56.3,30.00,NNE,16,1.1,1.1,60,0.00,CLR,SCT,0.00,WeatherDisplay:10.37,2013-05-06 13:57:00,
2013-05-06 09:59:00,71.1,56.5,30.00,SE,125,1.1,1.1,60,0.00,CLR,SCT,0.00,WeatherDisplay:10.37,2013-05-06 13:59:00,
2013-05-06 10:00:00,71.1,56.5,30.00,SE,125,1.1,1.1,60,0.00,CLR,SCT,0.00,WeatherDisplay:10.37,2013-05-06 14:00:00,
2013-05-06 10:02:00,71.2,56.1,30.00,NE,49,2.3,2.3,59,0.00,CLR,SCT,0.00,WeatherDisplay:10.37,2013-05-06 14:02:00,
2013-05-06 10:04:00,71.3,56.7,30.00,West,276,1.1,1.1,60,0.00,CLR,SCT,0.00,WeatherDisplay:10.37,2013-05-06 14:04:00,
2013-05-06 10:05:00,71.3,56.7,30.00,NNE,22,0.0,2.0,60,0.00,CLR,SCT,0.00,WeatherDisplay:10.37,2013-05-06 14:05:00,
2013-05-06 10:07:00,71.5,56.9,30.01,ENE,58,1.1,1.1,60,0.00,CLR,SCT,0.00,WeatherDisplay:10.37,2013-05-06 14:07:00,
2013-05-06 10:10:00,71.8,56.2,30.01,SW,235,2.3,2.3,58,0.00,CLR,SCT,0.00,WeatherDisplay:10.37,2013-05-06 14:10:00,
2013-05-06 10:11:00,71.8,55.7,30.01,SE,135,2.3,2.3,57,0.00,CLR,SCT,0.00,WeatherDisplay:10.37,2013-05-06 14:11:00,
2013-05-06 10:12:00,71.8,55.7,30.01,ESE,118,2.3,2.3,57,0.00,CLR,SCT,0.00,WeatherDisplay:10.37,2013-05-06 14:12:00,
2013-05-06 10:15:00,71.8,55.7,30.00,NNW,339,1.1,1.1,57,0.00,CLR,SCT,0.00,WeatherDisplay:10.37,2013-05-06 14:15:00,
2013-05-06 10:16:00,71.8,55.7,30.01,North,360,0.0,0.0,57,0.00,CLR,SCT,0.00,WeatherDisplay:10.37,2013-05-06 14:16:00,
2013-05-06 10:18:00,71.8,56.2,30.01,SSW,201,1.1,1.1,58,0.00,CLR,SCT,0.00,WeatherDisplay:10.37,2013-05-06 14:18:00,
2013-05-06 10:20:00,72.0,56.4,30.01,NNW,348,2.0,2.0,58,0.00,CLR,SCT,0.00,WeatherDisplay:10.37,2013-05-06 14:20:00,
2013-05-06 10:21:00,72.0,55.9,30.01,NE,49,2.3,2.3,57,0.00,CLR,SCT,0.00,WeatherDisplay:10.37,2013-05-06 14:21:00,
2013-05-06 10:23:00,72.1,56.0,30.01,West,278,1.1,1.1,57,0.00,CLR,SCT,0.00,WeatherDisplay:10.37,2013-05-06 14:23:00,
2013-05-06 10:25:00,72.1,55.5,30.01,SW,232,3.5,3.5,56,0.00,CLR,SCT,0.00,WeatherDisplay:10.37,2013-05-06 14:25:00,
2013-05-06 10:26:00,72.1,56.0,30.01,NE,40,2.0,2.0,57,0.00,CLR,SCT,0.00,WeatherDisplay:10.37,2013-05-06 14:26:00,
2013-05-06 10:27:00,72.1,56.5,30.01,East,94,2.3,2.3,58,0.00,CLR,SCT,0.00,WeatherDisplay:10.37,2013-05-06 14:27:00,
2013-05-06 10:28:00,72.1,56.5,30.01,NE,53,2.3,2.3,58,0.00,CLR,SCT,0.00,WeatherDisplay:10.37,2013-05-06 14:28:00,
2013-05-06 10:30:00,72.1,56.5,30.01,North,356,2.3,2.3,58,0.00,CLR,SCT,0.00,WeatherDisplay:10.37,2013-05-06 14:30:00,
2013-05-06 10:31:00,72.0,55.9,30.01,NE,44,2.3,2.3,57,0.00,CLR,SCT,0.00,WeatherDisplay:10.37,2013-05-06 14:31:00,
2013-05-06 10:32:00,72.0,56.4,30.01,NE,49,1.1,1.1,58,0.00,CLR,SCT,0.00,WeatherDisplay:10.37,2013-05-06 14:32:00,
2013-05-06 10:33:00,71.9,56.3,30.01,NE,45,1.0,1.0,58,0.00,CLR,SCT,0.00,WeatherDisplay:10.37,2013-05-06 14:33:00,
2013-05-06 10:36:00,71.7,55.7,30.01,SE,126,1.1,1.1,57,0.00,CLR,SCT,0.00,WeatherDisplay:10.37,2013-05-06 14:36:00,
2013-05-06 10:37:00,71.5,55.5,30.01,SE,146,1.1,1.1,57,0.00,CLR,SCT,0.00,WeatherDisplay:10.37,2013-05-06 14:37:00,
2013-05-06 10:38:00,71.4,55.4,30.01,South,170,1.1,1.1,57,0.00,CLR,SCT,0.00,WeatherDisplay:10.37,2013-05-06 14:38:00,
2013-05-06 10:41:00,71.5,56.9,30.02,NE,43,2.3,2.3,60,0.00,CLR,SCT,0.00,WeatherDisplay:10.37,2013-05-06 14:41:00,
2013-05-06 10:43:00,71.6,57.0,30.01,SE,128,1.1,1.1,60,0.00,CLR,SCT,0.00,WeatherDisplay:10.37,2013-05-06 14:43:00,
2013-05-06 10:46:00,72.0,56.4,30.02,SSE,150,1.1,1.1,58,0.00,CLR,SCT,0.00,WeatherDisplay:10.37,2013-05-06 14:46:00,
2013-05-06 10:47:00,72.0,56.4,30.02,WSW,253,1.1,1.1,58,0.00,CLR,SCT,0.00,WeatherDisplay:10.37,2013-05-06 14:47:00,
2013-05-06 10:48:00,71.9,55.8,30.01,WSW,253,0.0,0.0,57,0.00,CLR,SCT,0.00,WeatherDisplay:10.37,2013-05-06 14:48:00,
2013-05-06 10:51:00,71.7,56.1,30.01,SW,219,1.1,1.1,58,0.00,CLR,SCT,0.00,WeatherDisplay:10.37,2013-05-06 14:51:00,
2013-05-06 10:52:00,71.7,56.1,30.02,SW,216,1.1,1.1,58,0.00,CLR,SCT,0.00,WeatherDisplay:10.37,2013-05-06 14:52:00,
2013-05-06 10:53:00,71.8,56.7,30.01,SW,215,0.0,0.0,59,0.00,CLR,SCT,0.00,WeatherDisplay:10.37,2013-05-06 14:53:00,
2013-05-06 10:54:00,71.8,56.2,30.02,SW,215,1.1,1.1,58,0.00,CLR,SCT,0.00,WeatherDisplay:10.37,2013-05-06 14:54:00,
2013-05-06 10:56:00,72.0,55.9,30.01,North,9,1.1,1.1,57,0.00,CLR,SCT,0.00,WeatherDisplay:10.37,2013-05-06 14:56:00,
2013-05-06 10:57:00,72.0,55.9,30.02,East,86,1.1,0.0,57,0.00,CLR,SCT,0.00,WeatherDisplay:10.37,2013-05-06 14:57:00,
2013-05-06 10:58:00,72.1,56.0,30.01,SSE,166,0.0,0.4,57,0.00,CLR,SCT,0.00,WeatherDisplay:10.37,2013-05-06 14:58:00,
2013-05-06 10:59:00,72.2,56.1,30.01,NNW,333,1.1,1.1,57,0.00,CLR,SCT,0.00,WeatherDisplay:10.37,2013-05-06 14:59:00,
2013-05-06 11:01:00,72.4,56.8,30.01,ENE,67,2.3,2.3,58,0.00,CLR,SCT,0.00,WeatherDisplay:10.37,2013-05-06 15:01:00,
2013-05-06 11:02:00,72.5,56.9,30.01,ENE,67,2.3,0.0,58,0.00,CLR,SCT,0.00,WeatherDisplay:10.37,2013-05-06 15:02:00,
2013-05-06 11:03:00,72.6,57.0,30.01,WNW,302,2.3,2.3,58,0.00,CLR,SCT,0.00,WeatherDisplay:10.37,2013-05-06 15:03:00,
2013-05-06 11:04:00,72.8,57.6,30.01,WNW,287,1.1,0.0,59,0.00,CLR,SCT,0.00,WeatherDisplay:10.37,2013-05-06 15:04:00,
2013-05-06 11:07:00,73.0,55.9,30.02,SE,133,2.3,2.3,55,0.00,CLR,SCT,0.00,WeatherDisplay:10.37,2013-05-06 15:07:00,
2013-05-06 11:08:00,73.0,56.9,30.02,SE,132,1.1,0.0,57,0.00,CLR,SCT,0.00,WeatherDisplay:10.37,2013-05-06 15:08:00,
2013-05-06 11:10:00,73.2,57.5,30.01,ENE,64,1.1,0.0,58,0.00,CLR,SCT,0.00,WeatherDisplay:10.37,2013-05-06 15:10:00,
2013-05-06 11:12:00,73.3,57.1,30.02,West,281,2.3,2.3,57,0.00,CLR,SCT,0.00,WeatherDisplay:10.37,2013-05-06 15:12:00,
2013-05-06 11:13:00,73.4,56.7,30.02,SE,125,3.5,3.5,56,0.00,CLR,SCT,0.00,WeatherDisplay:10.37,2013-05-06 15:13:00,
2013-05-06 11:15:00,73.3,56.2,30.02,SW,215,3.5,3.5,55,0.00,CLR,SCT,0.00,WeatherDisplay:10.37,2013-05-06 15:15:00,
2013-05-06 11:17:00,73.4,56.7,30.01,WSW,253,2.0,2.0,56,0.00,CLR,SCT,0.00,WeatherDisplay:10.37,2013-05-06 15:17:00,
2013-05-06 11:18:00,73.4,56.7,30.02,NNE,27,2.3,2.3,56,0.00,CLR,SCT,0.00,WeatherDisplay:10.37,2013-05-06 15:18:00,
2013-05-06 11:20:00,73.6,56.4,30.02,SW,228,4.0,4.0,55,0.00,CLR,SCT,0.00,WeatherDisplay:10.37,2013-05-06 15:20:00,
2013-05-06 11:21:00,73.6,56.4,30.02,South,174,3.5,3.5,55,0.00,CLR,SCT,0.00,WeatherDisplay:10.37,2013-05-06 15:21:00,
2013-05-06 11:22:00,73.7,57.0,30.01,SSW,201,1.1,1.1,56,0.00,CLR,SCT,0.00,WeatherDisplay:10.37,2013-05-06 15:22:00,
2013-05-06 11:23:00,73.8,57.1,30.02,SE,128,1.1,1.1,56,0.00,CLR,SCT,0.00,WeatherDisplay:10.37,2013-05-06 15:23:00,
2013-05-06 11:24:00,73.9,57.2,30.02,East,82,2.3,2.3,56,0.00,CLR,SCT,0.00,WeatherDisplay:10.37,2013-05-06 15:24:00,
2013-05-06 11:26:00,73.9,56.7,30.02,East,98,3.5,3.5,55,0.00,CLR,SCT,0.00,WeatherDisplay:10.37,2013-05-06 15:26:00,
2013-05-06 11:27:00,73.8,56.6,30.02,ESE,114,3.5,3.5,55,0.00,CLR,SCT,0.00,WeatherDisplay:10.37,2013-05-06 15:27:00,
2013-05-06 11:28:00,73.8,57.1,30.02,ESE,115,1.1,1.1,56,0.00,CLR,SCT,0.00,WeatherDisplay:10.37,2013-05-06 15:28:00,
2013-05-06 11:29:00,73.8,57.6,30.02,ENE,77,1.0,0.0,57,0.00,CLR,SCT,0.00,WeatherDisplay:10.37,2013-05-06 15:29:00,
2013-05-06 11:31:00,73.9,56.7,30.01,East,84,2.3,2.3,55,0.00,CLR,SCT,0.00,WeatherDisplay:10.37,2013-05-06 15:31:00,
2013-05-06 11:32:00,73.9,56.7,30.02,WSW,247,2.3,2.3,55,0.00,CLR,SCT,0.00,WeatherDisplay:10.37,2013-05-06 15:32:00,
2013-05-06 11:33:00,74.0,57.3,30.02,SSE,168,2.3,2.3,56,0.00,CLR,SCT,0.00,WeatherDisplay:10.37,2013-05-06 15:33:00,
2013-05-06 11:34:00,74.1,57.9,30.01,SSE,159,1.1,1.1,57,0.00,CLR,SCT,0.00,WeatherDisplay:10.37,2013-05-06 15:34:00,
2013-05-06 11:36:00,74.3,57.1,30.01,North,351,1.1,1.1,55,0.00,CLR,SCT,0.00,WeatherDisplay:10.37,2013-05-06 15:36:00,
2013-05-06 11:37:00,74.3,57.1,30.01,NE,44,1.1,1.1,55,0.00,CLR,SCT,0.00,WeatherDisplay:10.37,2013-05-06 15:37:00,
2013-05-06 11:38:00,74.4,57.2,30.02,East,82,2.0,2.0,55,0.00,CLR,SCT,0.00,WeatherDisplay:10.37,2013-05-06 15:38:00,
2013-05-06 11:40:00,74.5,56.2,30.01,SE,145,2.3,2.3,53,0.00,CLR,SCT,0.00,WeatherDisplay:10.37,2013-05-06 15:40:00,
2013-05-06 11:41:00,74.4,57.2,30.02,WSW,240,2.3,2.3,55,0.00,CLR,SCT,0.00,WeatherDisplay:10.37,2013-05-06 15:41:00,
2013-05-06 11:42:00,74.4,56.2,30.01,West,260,3.5,3.5,53,0.00,CLR,SCT,0.00,WeatherDisplay:10.37,2013-05-06 15:42:00,
2013-05-06 11:43:00,74.4,57.2,30.02,WSW,238,2.3,2.3,55,0.00,CLR,SCT,0.00,WeatherDisplay:10.37,2013-05-06 15:43:00,
2013-05-06 11:45:00,74.4,56.7,30.02,SE,131,4.6,4.6,54,0.00,CLR,SCT,0.00,WeatherDisplay:10.37,2013-05-06 15:45:00,
2013-05-06 11:46:00,74.3,56.6,30.02,WSW,256,4.6,4.6,54,0.00,CLR,SCT,0.00,WeatherDisplay:10.37,2013-05-06 15:46:00,
2013-05-06 11:47:00,74.3,57.1,30.02,West,269,1.1,0.0,55,0.00,CLR,SCT,0.00,WeatherDisplay:10.37,2013-05-06 15:47:00,
2013-05-06 11:48:00,74.3,57.6,30.01,East,81,1.1,1.1,56,0.00,CLR,SCT,0.00,WeatherDisplay:10.37,2013-05-06 15:48:00,
2013-05-06 11:49:00,74.3,57.6,30.02,SSW,204,2.3,2.3,56,0.00,CLR,SCT,0.00,WeatherDisplay:10.37,2013-05-06 15:49:00,
2013-05-06 11:50:00,74.3,57.1,30.02,SSW,212,3.5,3.5,55,0.00,CLR,SCT,0.00,WeatherDisplay:10.37,2013-05-06 15:50:00,
2013-05-06 11:52:00,74.2,57.0,30.02,ESE,108,2.3,0.0,55,0.00,CLR,SCT,0.00,WeatherDisplay:10.37,2013-05-06 15:52:00,
2013-05-06 11:53:00,74.3,56.6,30.01,West,278,3.5,3.5,54,0.00,CLR,SCT,0.00,WeatherDisplay:10.37,2013-05-06 15:53:00,
2013-05-06 11:54:00,74.3,56.6,30.01,ESE,112,3.5,3.5,54,0.00,CLR,SCT,0.00,WeatherDisplay:10.37,2013-05-06 15:54:00,
2013-05-06 11:55:00,74.4,57.2,30.01,NE,53,1.1,1.1,55,0.00,CLR,SCT,0.00,WeatherDisplay:10.37,2013-05-06 15:55:00,
2013-05-06 11:57:00,74.8,57.0,30.01,SSW,204,4.6,4.6,54,0.00,CLR,SCT,0.00,WeatherDisplay:10.37,2013-05-06 15:57:00,
2013-05-06 11:59:00,75.0,57.2,30.01,ENE,71,1.1,1.1,54,0.00,CLR,SCT,0.00,WeatherDisplay:10.37,2013-05-06 15:59:00,
2013-05-06 12:00:00,75.2,57.9,30.01,SE,134,2.3,2.3,55,0.00,CLR,SCT,0.00,WeatherDisplay:10.37,2013-05-06 16:00:00,
2013-05-06 12:02:00,75.2,57.4,30.01,SSE,155,2.0,2.0,54,0.00,CLR,SCT,0.00,WeatherDisplay:10.37,2013-05-06 16:02:00,
2013-05-06 12:03:00,75.2,57.4,30.01,SSW,212,2.3,2.3,54,0.00,CLR,SCT,0.00,WeatherDisplay:10.37,2013-05-06 16:03:00,
2013-05-06 12:04:00,75.1,56.8,30.01,NW,320,3.5,3.5,53,0.00,CLR,SCT,0.00,WeatherDisplay:10.37,2013-05-06 16:04:00,
2013-05-06 12:05:00,75.1,57.8,30.01,South,190,3.5,3.5,55,0.00,CLR,SCT,0.00,WeatherDisplay:10.37,2013-05-06 16:05:00,
2013-05-06 12:07:00,75.2,57.4,30.01,ENE,61,2.0,2.0,54,0.00,CLR,SCT,0.00,WeatherDisplay:10.37,2013-05-06 16:07:00,
2013-05-06 12:08:00,75.3,57.5,30.01,WNW,291,2.3,2.3,54,0.00,CLR,SCT,0.00,WeatherDisplay:10.37,2013-05-06 16:08:00,
2013-05-06 12:09:00,75.4,57.6,30.01,WSW,253,1.1,1.1,54,0.00,CLR,SCT,0.00,WeatherDisplay:10.37,2013-05-06 16:09:00,
2013-05-06 12:10:00,75.5,57.7,30.01,ESE,115,2.3,2.3,54,0.00,CLR,SCT,0.00,WeatherDisplay:10.37,2013-05-06 16:10:00,
2013-05-06 12:13:00,75.5,56.6,30.01,ESE,117,5.0,5.0,52,0.00,CLR,SCT,0.00,WeatherDisplay:10.37,2013-05-06 16:13:00,
2013-05-06 12:14:00,75.5,56.6,30.01,South,185,4.6,4.6,52,0.00,CLR,SCT,0.00,WeatherDisplay:10.37,2013-05-06 16:14:00,
2013-05-06 12:16:00,75.5,56.6,30.01,WNW,302,3.5,3.5,52,0.00,CLR,SCT,0.00,WeatherDisplay:10.37,2013-05-06 16:16:00,
2013-05-06 12:18:00,75.4,56.5,30.01,ENE,76,2.3,2.3,52,0.00,CLR,SCT,0.00,WeatherDisplay:10.37,2013-05-06 16:18:00,
2013-05-06 12:20:00,75.4,56.5,30.01,East,84,1.1,1.1,52,0.00,CLR,SCT,0.00,WeatherDisplay:10.37,2013-05-06 16:20:00,
2013-05-06 12:21:00,75.5,57.2,30.01,West,268,2.3,2.3,53,0.00,CLR,SCT,0.00,WeatherDisplay:10.37,2013-05-06 16:21:00,
2013-05-06 12:23:00,75.5,56.6,30.01,WNW,283,3.5,3.5,52,0.00,CLR,SCT,0.00,WeatherDisplay:10.37,2013-05-06 16:23:00,
2013-05-06 12:25:00,75.6,57.3,30.01,SW,216,1.0,4.0,53,0.00,CLR,SCT,0.00,WeatherDisplay:10.37,2013-05-06 16:25:00,
2013-05-06 12:26:00,75.7,56.8,30.01,NNE,14,1.1,1.1,52,0.00,CLR,SCT,0.00,WeatherDisplay:10.37,2013-05-06 16:26:00,
2013-05-06 12:28:00,75.8,56.4,30.01,WSW,246,3.5,3.5,51,0.00,CLR,SCT,0.00,WeatherDisplay:10.37,2013-05-06 16:28:00,
2013-05-06 12:30:00,75.8,56.9,30.01,WSW,253,3.5,3.5,52,0.00,CLR,SCT,0.00,WeatherDisplay:10.37,2013-05-06 16:30:00,
2013-05-06 12:32:00,75.4,56.5,30.01,ENE,63,3.0,3.0,52,0.00,CLR,SCT,0.00,WeatherDisplay:10.37,2013-05-06 16:32:00,
2013-05-06 12:34:00,75.0,56.2,30.01,East,98,2.3,2.3,52,0.00,CLR,SCT,0.00,WeatherDisplay:10.37,2013-05-06 16:34:00,
2013-05-06 12:35:00,74.9,56.6,30.01,SW,224,2.3,2.3,53,0.00,CLR,SCT,0.00,WeatherDisplay:10.37,2013-05-06 16:35:00,
2013-05-06 12:36:00,74.8,56.5,30.01,South,184,1.1,1.1,53,0.00,CLR,SCT,0.00,WeatherDisplay:10.37,2013-05-06 16:36:00,
2013-05-06 12:37:00,74.8,57.0,30.01,WSW,246,1.1,1.1,54,0.00,CLR,SCT,0.00,WeatherDisplay:10.37,2013-05-06 16:37:00,
2013-05-06 12:39:00,74.8,56.5,30.00,SW,217,2.3,0.0,53,0.00,CLR,SCT,0.00,WeatherDisplay:10.37,2013-05-06 16:39:00,
2013-05-06 12:40:00,74.8,57.0,30.00,SE,136,1.1,1.1,54,0.00,CLR,SCT,0.00,WeatherDisplay:10.37,2013-05-06 16:40:00,
2013-05-06 12:41:00,74.8,56.0,30.00,NNW,346,2.3,2.3,52,0.00,CLR,SCT,0.00,WeatherDisplay:10.37,2013-05-06 16:41:00,
2013-05-06 12:42:00,74.8,56.5,30.00,WSW,238,3.5,3.5,53,0.00,CLR,SCT,0.00,WeatherDisplay:10.37,2013-05-06 16:42:00,
2013-05-06 12:44:00,74.9,57.1,30.00,SSE,166,1.0,0.0,54,0.00,CLR,SCT,0.00,WeatherDisplay:10.37,2013-05-06 16:44:00,
2013-05-06 12:45:00,74.9,57.1,30.00,SSW,204,0.0,3.0,54,0.00,CLR,SCT,0.00,WeatherDisplay:10.37,2013-05-06 16:45:00,
2013-05-06 12:46:00,75.0,56.2,30.00,East,87,3.5,3.5,52,0.00,CLR,SCT,0.00,WeatherDisplay:10.37,2013-05-06 16:46:00,
2013-05-06 12:47:00,75.0,56.7,30.00,ENE,61,2.3,2.3,53,0.00,CLR,SCT,0.00,WeatherDisplay:10.37,2013-05-06 16:47:00,
2013-05-06 12:49:00,75.0,56.7,30.00,South,187,1.1,0.0,53,0.00,CLR,SCT,0.00,WeatherDisplay:10.37,2013-05-06 16:49:00,
2013-05-06 12:50:00,75.1,57.3,30.00,South,187,0.0,0.0,54,0.00,CLR,SCT,0.00,WeatherDisplay:10.37,2013-05-06 16:50:00,
2013-05-06 12:51:00,75.1,57.3,30.00,ENE,64,1.0,1.0,54,0.00,CLR,SCT,0.00,WeatherDisplay:10.37,2013-05-06 16:51:00,
2013-05-06 12:53:00,75.5,57.7,30.00,ENE,64,1.1,1.1,54,0.00,CLR,SCT,0.00,WeatherDisplay:10.37,2013-05-06 16:53:00,
2013-05-06 12:54:00,75.7,56.8,30.00,NNE,32,1.1,1.1,52,0.00,CLR,SCT,0.00,WeatherDisplay:10.37,2013-05-06 16:54:00,
2013-05-06 12:55:00,75.8,58.0,30.00,NE,42,3.5,3.5,54,0.00,CLR,SCT,0.00,WeatherDisplay:10.37,2013-05-06 16:55:00,
2013-05-06 12:56:00,75.8,58.0,30.00,NE,43,1.1,1.1,54,0.00,CLR,SCT,0.00,WeatherDisplay:10.37,2013-05-06 16:56:00,
2013-05-06 12:57:00,75.9,58.1,30.00,NNE,30,0.0,0.0,54,0.00,CLR,SCT,0.00,WeatherDisplay:10.37,2013-05-06 16:57:00,
2013-05-06 12:58:00,75.9,57.0,30.00,North,349,0.0,0.0,52,0.00,CLR,SCT,0.00,WeatherDisplay:10.37,2013-05-06 16:58:00,
2013-05-06 13:00:00,75.9,57.0,30.00,SSE,150,2.3,2.3,52,0.00,CLR,SCT,0.00,WeatherDisplay:10.37,2013-05-06 17:00:00,
2013-05-06 13:01:00,75.8,56.9,30.00,SSE,162,1.1,1.1,52,0.00,CLR,SCT,0.00,WeatherDisplay:10.37,2013-05-06 17:01:00,
2013-05-06 13:02:00,75.9,56.5,30.00,WSW,250,1.1,1.1,51,0.00,CLR,SCT,0.00,WeatherDisplay:10.37,2013-05-06 17:02:00,
2013-05-06 13:03:00,75.9,56.5,30.00,SSE,164,3.5,3.5,51,0.00,CLR,SCT,0.00,WeatherDisplay:10.37,2013-05-06 17:03:00,
2013-05-06 13:05:00,75.9,56.5,30.00,ENE,66,1.1,1.1,51,0.00,CLR,SCT,0.00,WeatherDisplay:10.37,2013-05-06 17:05:00,
2013-05-06 13:06:00,75.9,56.5,30.00,SW,222,1.1,1.1,51,0.00,CLR,SCT,0.00,WeatherDisplay:10.37,2013-05-06 17:06:00,
2013-05-06 13:07:00,76.1,57.7,30.00,NE,43,1.1,1.1,53,0.00,CLR,SCT,0.00,WeatherDisplay:10.37,2013-05-06 17:07:00,
2013-05-06 13:08:00,76.3,57.4,30.00,SE,131,1.0,1.1,52,0.00,CLR,SCT,0.00,WeatherDisplay:10.37,2013-05-06 17:08:00,
2013-05-06 13:10:00,76.5,56.5,29.99,East,98,3.5,3.5,50,0.00,CLR,SCT,0.00,WeatherDisplay:10.37,2013-05-06 17:10:00,
2013-05-06 13:11:00,76.7,56.1,29.99,ENE,63,1.1,1.1,49,0.00,CLR,SCT,0.00,WeatherDisplay:10.37,2013-05-06 17:11:00,
2013-05-06 13:12:00,76.7,56.1,29.99,WSW,248,4.0,4.0,49,0.00,CLR,SCT,0.00,WeatherDisplay:10.37,2013-05-06 17:12:00,
2013-05-06 13:14:00,76.9,56.8,29.99,SSE,154,3.5,3.5,50,0.00,CLR,SCT,0.00,WeatherDisplay:10.37,2013-05-06 17:14:00,
2013-05-06 13:15:00,77.0,57.5,29.99,ESE,115,3.5,3.5,51,0.00,CLR,SCT,0.00,WeatherDisplay:10.37,2013-05-06 17:15:00,
2013-05-06 13:17:00,77.2,56.6,29.99,NW,317,4.6,4.6,49,0.00,CLR,SCT,0.00,WeatherDisplay:10.37,2013-05-06 17:17:00,
2013-05-06 13:19:00,77.2,56.6,29.99,SW,234,3.5,3.5,49,0.00,CLR,SCT,0.00,WeatherDisplay:10.37,2013-05-06 17:19:00,
2013-05-06 13:20:00,77.2,56.0,29.99,SSW,204,3.5,3.5,48,0.00,CLR,SCT,0.00,WeatherDisplay:10.37,2013-05-06 17:20:00,
2013-05-06 13:22:00,77.0,55.8,29.99,WSW,246,2.3,2.3,48,0.00,CLR,SCT,0.00,WeatherDisplay:10.37,2013-05-06 17:22:00,
2013-05-06 13:24:00,77.0,55.8,29.99,NNE,27,4.6,4.6,48,0.00,CLR,SCT,0.00,WeatherDisplay:10.37,2013-05-06 17:24:00,
2013-05-06 13:25:00,77.0,56.4,29.99,NNE,24,2.3,2.3,49,0.00,CLR,SCT,0.00,WeatherDisplay:10.37,2013-05-06 17:25:00,
2013-05-06 13:27:00,77.2,57.1,29.99,NNE,18,2.3,0.0,50,0.00,CLR,SCT,0.00,WeatherDisplay:10.37,2013-05-06 17:27:00,
2013-05-06 13:30:00,77.2,55.4,29.99,SE,131,3.5,3.5,47,0.00,CLR,SCT,0.00,WeatherDisplay:10.37,2013-05-06 17:30:00,
2013-05-06 13:32:00,77.3,56.6,29.99,NNE,23,1.1,1.1,49,0.00,CLR,SCT,0.00,WeatherDisplay:10.37,2013-05-06 17:32:00,
2013-05-06 13:33:00,77.4,56.2,29.99,NNW,333,2.3,2.3,48,0.00,CLR,SCT,0.00,WeatherDisplay:10.37,2013-05-06 17:33:00,
2013-05-06 13:35:00,77.4,56.7,29.99,SSE,159,2.3,2.3,49,0.00,CLR,SCT,0.00,WeatherDisplay:10.37,2013-05-06 17:35:00,
2013-05-06 13:36:00,77.5,56.8,29.99,SE,135,1.1,1.1,49,0.00,CLR,SCT,0.00,WeatherDisplay:10.37,2013-05-06 17:36:00,
2013-05-06 13:37:00,77.5,56.3,29.99,West,260,3.5,3.5,48,0.00,CLR,SCT,0.00,WeatherDisplay:10.37,2013-05-06 17:37:00,
2013-05-06 13:38:00,77.5,56.3,29.99,SE,137,3.5,3.5,48,0.00,CLR,SCT,0.00,WeatherDisplay:10.37,2013-05-06 17:38:00,
2013-05-06 13:40:00,77.7,56.4,29.99,NE,55,2.3,2.3,48,0.00,CLR,SCT,0.00,WeatherDisplay:10.37,2013-05-06 17:40:00,
2013-05-06 13:41:00,77.7,56.4,29.98,SW,232,2.3,2.3,48,0.00,CLR,SCT,0.00,WeatherDisplay:10.37,2013-05-06 17:41:00,
2013-05-06 13:43:00,77.8,56.0,29.99,SSE,163,5.0,5.0,47,0.00,CLR,SCT,0.00,WeatherDisplay:10.37,2013-05-06 17:43:00,
2013-05-06 13:45:00,77.8,56.5,29.98,ESE,117,3.5,3.5,48,0.00,CLR,SCT,0.00,WeatherDisplay:10.37,2013-05-06 17:45:00,
2013-05-06 13:46:00,77.8,56.5,29.98,West,271,3.5,3.5,48,0.00,CLR,SCT,0.00,WeatherDisplay:10.37,2013-05-06 17:46:00,
2013-05-06 13:48:00,77.8,55.4,29.98,SSE,148,3.5,3.5,46,0.00,CLR,SCT,0.00,WeatherDisplay:10.37,2013-05-06 17:48:00,
2013-05-06 13:49:00,77.8,56.0,29.98,North,352,1.1,1.1,47,0.00,CLR,SCT,0.00,WeatherDisplay:10.37,2013-05-06 17:49:00,
2013-05-06 13:51:00,77.7,55.3,29.98,ESE,105,4.6,4.6,46,0.00,CLR,SCT,0.00,WeatherDisplay:10.37,2013-05-06 17:51:00,
2013-05-06 13:53:00,77.8,56.0,29.98,South,173,3.5,3.5,47,0.00,CLR,SCT,0.00,WeatherDisplay:10.37,2013-05-06 17:53:00,
2013-05-06 13:54:00,77.9,56.6,29.98,NE,51,3.5,3.5,48,0.00,CLR,SCT,0.00,WeatherDisplay:10.37,2013-05-06 17:54:00,
2013-05-06 13:56:00,78.3,57.0,29.98,SE,146,2.3,2.3,48,0.00,CLR,SCT,0.00,WeatherDisplay:10.37,2013-05-06 17:56:00,
2013-05-06 13:57:00,78.3,57.0,29.98,SE,142,2.3,2.3,48,0.00,CLR,SCT,0.00,WeatherDisplay:10.37,2013-05-06 17:57:00,
2013-05-06 13:58:00,78.6,58.4,29.98,SSE,148,1.1,1.1,50,0.00,CLR,SCT,0.00,WeatherDisplay:10.37,2013-05-06 17:58:00,
2013-05-06 13:59:00,78.7,57.4,29.98,SE,127,3.5,3.5,48,0.00,CLR,SCT,0.00,WeatherDisplay:10.37,2013-05-06 17:59:00,
2013-05-06 14:02:00,78.7,55.0,29.98,SSW,194,3.5,3.5,44,0.00,CLR,SCT,0.00,WeatherDisplay:10.37,2013-05-06 18:02:00,
2013-05-06 14:03:00,78.5,56.6,29.98,NE,39,3.5,3.5,47,0.00,CLR,SCT,0.00,WeatherDisplay:10.37,2013-05-06 18:03:00,
2013-05-06 14:04:00,78.5,56.6,29.98,SSW,194,3.5,3.5,47,0.00,CLR,SCT,0.00,WeatherDisplay:10.37,2013-05-06 18:04:00,
2013-05-06 14:07:00,78.4,55.9,29.98,WSW,253,6.9,6.9,46,0.00,CLR,SCT,0.00,WeatherDisplay:10.37,2013-05-06 18:07:00,
2013-05-06 14:08:00,78.3,56.4,29.98,SSE,158,4.0,4.0,47,0.00,CLR,SCT,0.00,WeatherDisplay:10.37,2013-05-06 18:08:00,
2013-05-06 14:09:00,78.3,55.8,29.98,South,177,6.0,6.0,46,0.00,CLR,SCT,0.00,WeatherDisplay:10.37,2013-05-06 18:09:00,
2013-05-06 14:12:00,78.1,55.6,29.98,SSW,207,2.3,2.3,46,0.00,CLR,SCT,0.00,WeatherDisplay:10.37,2013-05-06 18:12:00,
2013-05-06 14:14:00,78.1,57.4,29.98,NW,316,1.1,1.1,49,0.00,CLR,SCT,0.00,WeatherDisplay:10.37,2013-05-06 18:14:00,
2013-05-06 14:15:00,78.1,56.8,29.98,SE,135,2.3,2.3,48,0.00,CLR,SCT,0.00,WeatherDisplay:10.37,2013-05-06 18:15:00,
2013-05-06 14:17:00,78.4,57.7,29.98,WNW,294,2.3,2.3,49,0.00,CLR,SCT,0.00,WeatherDisplay:10.37,2013-05-06 18:17:00,
2013-05-06 14:19:00,78.9,56.4,29.98,ESE,104,2.3,2.3,46,0.00,CLR,SCT,0.00,WeatherDisplay:10.37,2013-05-06 18:19:00,
2013-05-06 14:20:00,78.9,56.4,29.97,ESE,120,2.3,2.3,46,0.00,CLR,SCT,0.00,WeatherDisplay:10.37,2013-05-06 18:20:00,
2013-05-06 14:22:00,78.9,57.0,29.97,SSE,167,4.6,4.6,47,0.00,CLR,SCT,0.00,WeatherDisplay:10.37,2013-05-06 18:22:00,
2013-05-06 14:24:00,78.9,56.4,29.97,North,356,3.0,3.0,46,0.00,CLR,SCT,0.00,WeatherDisplay:10.37,2013-05-06 18:24:00,
2013-05-06 14:25:00,78.9,56.4,29.97,West,279,3.5,3.5,46,0.00,CLR,SCT,0.00,WeatherDisplay:10.37,2013-05-06 18:25:00,
2013-05-06 14:27:00,78.8,57.4,29.97,SSW,197,3.5,3.5,48,0.00,CLR,SCT,0.00,WeatherDisplay:10.37,2013-05-06 18:27:00,
2013-05-06 14:28:00,78.8,56.3,29.97,West,274,4.0,4.0,46,0.00,CLR,SCT,0.00,WeatherDisplay:10.37,2013-05-06 18:28:00,
2013-05-06 14:30:00,78.8,56.3,29.97,West,259,2.3,2.3,46,0.00,CLR,SCT,0.00,WeatherDisplay:10.37,2013-05-06 18:30:00,
2013-05-06 14:32:00,78.8,55.7,29.97,ESE,102,4.6,4.6,45,0.00,CLR,SCT,0.00,WeatherDisplay:10.37,2013-05-06 18:32:00,
2013-05-06 14:33:00,78.7,55.6,29.97,SSE,167,4.6,4.6,45,0.00,CLR,SCT,0.00,WeatherDisplay:10.37,2013-05-06 18:33:00,
2013-05-06 14:35:00,78.7,56.2,29.97,NE,51,2.3,2.3,46,0.00,CLR,SCT,0.00,WeatherDisplay:10.37,2013-05-06 18:35:00,
2013-05-06 14:37:00,78.7,55.0,29.97,WNW,284,3.5,3.5,44,0.00,CLR,SCT,0.00,WeatherDisplay:10.37,2013-05-06 18:37:00,
2013-05-06 14:38:00,78.6,55.5,29.97,SW,231,3.5,3.5,45,0.00,CLR,SCT,0.00,WeatherDisplay:10.37,2013-05-06 18:38:00,
2013-05-06 14:40:00,78.4,55.9,29.97,SW,219,3.5,3.5,46,0.00,CLR,SCT,0.00,WeatherDisplay:10.37,2013-05-06 18:40:00,
2013-05-06 14:42:00,78.3,56.4,29.97,WSW,249,4.6,4.6,47,0.00,CLR,SCT,0.00,WeatherDisplay:10.37,2013-05-06 18:42:00,
2013-05-06 14:43:00,78.3,55.2,29.97,ESE,120,3.5,3.5,45,0.00,CLR,SCT,0.00,WeatherDisplay:10.37,2013-05-06 18:43:00,
2013-05-06 14:45:00,78.2,56.3,29.97,SSW,212,9.2,9.2,47,0.00,CLR,SCT,0.00,WeatherDisplay:10.37,2013-05-06 18:45:00,
2013-05-06 14:46:00,78.2,56.3,29.97,WNW,287,5.8,5.8,47,0.00,CLR,SCT,0.00,WeatherDisplay:10.37,2013-05-06 18:46:00,
2013-05-06 14:48:00,78.2,55.7,29.97,ESE,105,3.5,3.5,46,0.00,CLR,SCT,0.00,WeatherDisplay:10.37,2013-05-06 18:48:00,
2013-05-06 14:50:00,78.2,55.7,29.96,SE,129,1.1,1.1,46,0.00,CLR,SCT,0.00,WeatherDisplay:10.37,2013-05-06 18:50:00,
2013-05-06 14:51:00,78.2,55.7,29.96,West,271,2.3,2.3,46,0.00,CLR,SCT,0.00,WeatherDisplay:10.37,2013-05-06 18:51:00,
2013-05-06 14:53:00,78.4,57.1,29.97,West,260,3.5,3.5,48,0.00,CLR,SCT,0.00,WeatherDisplay:10.37,2013-05-06 18:53:00,
2013-05-06 14:55:00,78.5,56.6,29.97,SSW,205,3.5,3.5,47,0.00,CLR,SCT,0.00,WeatherDisplay:10.37,2013-05-06 18:55:00,
2013-05-06 14:56:00,78.6,56.7,29.97,SE,135,3.5,3.5,47,0.00,CLR,SCT,0.00,WeatherDisplay:10.37,2013-05-06 18:56:00,
2013-05-06 14:59:00,78.5,55.4,29.96,WSW,256,8.1,8.1,45,0.00,CLR,SCT,0.00,WeatherDisplay:10.37,2013-05-06 18:59:00,
2013-05-06 15:00:00,78.3,55.2,29.96,WNW,294,5.8,5.8,45,0.00,CLR,SCT,0.00,WeatherDisplay:10.37,2013-05-06 19:00:00,
2013-05-06 15:01:00,78.2,55.1,29.96,WSW,255,3.5,3.5,45,0.00,CLR,SCT,0.00,WeatherDisplay:10.37,2013-05-06 19:01:00,
2013-05-06 15:04:00,78.2,55.7,29.96,NE,39,4.6,4.6,46,0.00,CLR,SCT,0.00,WeatherDisplay:10.37,2013-05-06 19:04:00,
2013-05-06 15:06:00,78.2,56.3,29.96,NE,46,2.3,2.3,47,0.00,CLR,SCT,0.00,WeatherDisplay:10.37,2013-05-06 19:06:00,
2013-05-06 15:09:00,78.3,55.2,29.96,East,86,3.5,3.5,45,0.00,CLR,SCT,0.00,WeatherDisplay:10.37,2013-05-06 19:09:00,
2013-05-06 15:11:00,78.5,56.6,29.96,NE,40,3.5,3.5,47,0.00,CLR,SCT,0.00,WeatherDisplay:10.37,2013-05-06 19:11:00,
2013-05-06 15:12:00,78.6,56.1,29.96,SW,235,4.6,4.6,46,0.00,CLR,SCT,0.00,WeatherDisplay:10.37,2013-05-06 19:12:00,
2013-05-06 15:14:00,78.6,56.1,29.96,West,273,3.5,3.5,46,0.00,CLR,SCT,0.00,WeatherDisplay:10.37,2013-05-06 19:14:00,
2013-05-06 15:16:00,78.6,56.1,29.96,SSE,163,3.5,3.5,46,0.00,CLR,SCT,0.00,WeatherDisplay:10.37,2013-05-06 19:16:00,
2013-05-06 15:17:00,78.6,56.7,29.96,ENE,63,1.1,1.1,47,0.00,CLR,SCT,0.00,WeatherDisplay:10.37,2013-05-06 19:17:00,
2013-05-06 15:19:00,78.9,55.8,29.96,South,176,2.0,2.0,45,0.00,CLR,SCT,0.00,WeatherDisplay:10.37,2013-05-06 19:19:00,
2013-05-06 15:20:00,78.9,55.8,29.96,SE,142,3.5,3.5,45,0.00,CLR,SCT,0.00,WeatherDisplay:10.37,2013-05-06 19:20:00,
2013-05-06 15:21:00,78.9,56.4,29.96,SSE,166,3.5,3.5,46,0.00,CLR,SCT,0.00,WeatherDisplay:10.37,2013-05-06 19:21:00,
2013-05-06 15:22:00,79.0,55.8,29.95,SSW,204,3.5,3.5,45,0.00,CLR,SCT,0.00,WeatherDisplay:10.37,2013-05-06 19:22:00,
2013-05-06 15:24:00,79.1,55.9,29.95,SE,135,3.5,3.5,45,0.00,CLR,SCT,0.00,WeatherDisplay:10.37,2013-05-06 19:24:00,
2013-05-06 15:25:00,79.1,55.9,29.95,SW,218,4.6,4.6,45,0.00,CLR,SCT,0.00,WeatherDisplay:10.37,2013-05-06 19:25:00,
2013-05-06 15:26:00,79.2,56.0,29.95,South,177,2.3,2.3,45,0.00,CLR,SCT,0.00,WeatherDisplay:10.37,2013-05-06 19:26:00,
2013-05-06 15:27:00,79.2,56.0,29.95,NE,46,3.5,3.5,45,0.00,CLR,SCT,0.00,WeatherDisplay:10.37,2013-05-06 19:27:00,
2013-05-06 15:30:00,79.3,57.3,29.95,North,358,3.5,3.5,47,0.00,CLR,SCT,0.00,WeatherDisplay:10.37,2013-05-06 19:30:00,
2013-05-06 15:31:00,79.3,56.1,29.95,NW,312,3.5,3.5,45,0.00,CLR,SCT,0.00,WeatherDisplay:10.37,2013-05-06 19:31:00,
2013-05-06 15:33:00,79.2,55.4,29.95,SSE,165,3.5,3.5,44,0.00,CLR,SCT,0.00,WeatherDisplay:10.37,2013-05-06 19:33:00,
2013-05-06 15:35:00,78.8,53.8,29.95,WSW,243,3.5,3.5,42,0.00,CLR,SCT,0.00,WeatherDisplay:10.37,2013-05-06 19:35:00,
2013-05-06 15:36:00,78.8,54.4,29.95,WSW,242,3.5,3.5,43,0.00,CLR,SCT,0.00,WeatherDisplay:10.37,2013-05-06 19:36:00,
2013-05-06 15:38:00,78.7,55.0,29.95,SSW,198,2.3,2.3,44,0.00,CLR,SCT,0.00,WeatherDisplay:10.37,2013-05-06 19:38:00,
2013-05-06 15:40:00,78.7,55.6,29.95,West,262,3.5,3.5,45,0.00,CLR,SCT,0.00,WeatherDisplay:10.37,2013-05-06 19:40:00,
2013-05-06 15:41:00,78.6,54.9,29.95,South,191,3.5,3.5,44,0.00,CLR,SCT,0.00,WeatherDisplay:10.37,2013-05-06 19:41:00,
2013-05-06 15:42:00,78.6,55.5,29.95,WSW,244,2.3,2.3,45,0.00,CLR,SCT,0.00,WeatherDisplay:10.37,2013-05-06 19:42:00,
2013-05-06 15:43:00,78.7,56.2,29.95,ESE,111,3.5,3.5,46,0.00,CLR,SCT,0.00,WeatherDisplay:10.37,2013-05-06 19:43:00,
2013-05-06 15:45:00,78.8,55.0,29.95,SSE,164,2.3,2.3,44,0.00,CLR,SCT,0.00,WeatherDisplay:10.37,2013-05-06 19:45:00,
2013-05-06 15:46:00,78.7,54.3,29.95,NE,56,3.5,3.5,43,0.00,CLR,SCT,0.00,WeatherDisplay:10.37,2013-05-06 19:46:00,
2013-05-06 15:47:00,78.7,54.3,29.95,NE,39,2.3,2.3,43,0.00,CLR,SCT,0.00,WeatherDisplay:10.37,2013-05-06 19:47:00,
2013-05-06 15:48:00,78.6,54.2,29.95,SSE,156,2.3,2.3,43,0.00,CLR,SCT,0.00,WeatherDisplay:10.37,2013-05-06 19:48:00,
2013-05-06 15:51:00,78.5,55.4,29.95,WSW,238,3.5,3.5,45,0.00,CLR,SCT,0.00,WeatherDisplay:10.37,2013-05-06 19:51:00,
2013-05-06 15:52:00,78.5,54.8,29.95,ENE,70,3.5,3.5,44,0.00,CLR,SCT,0.00,WeatherDisplay:10.37,2013-05-06 19:52:00,
2013-05-06 15:53:00,78.5,55.4,29.95,East,90,2.3,2.3,45,0.00,CLR,SCT,0.00,WeatherDisplay:10.37,2013-05-06 19:53:00,
2013-05-06 15:56:00,78.6,55.5,29.94,North,6,1.1,1.1,45,0.00,CLR,SCT,0.00,WeatherDisplay:10.37,2013-05-06 19:56:00,
2013-05-06 15:57:00,78.6,56.1,29.94,ESE,123,2.3,0.0,46,0.00,CLR,SCT,0.00,WeatherDisplay:10.37,2013-05-06 19:57:00,
2013-05-06 15:58:00,78.7,55.6,29.94,SSE,159,0.0,0.0,45,0.00,CLR,SCT,0.00,WeatherDisplay:10.37,2013-05-06 19:58:00,
2013-05-06 16:01:00,79.2,56.0,29.94,NE,36,2.3,2.3,45,0.00,CLR,SCT,0.00,WeatherDisplay:10.37,2013-05-06 20:01:00,
2013-05-06 16:02:00,79.3,55.5,29.94,SSE,154,1.1,0.0,44,0.00,CLR,SCT,0.00,WeatherDisplay:10.37,2013-05-06 20:02:00,
2013-05-06 16:03:00,79.3,54.9,29.94,WSW,240,2.0,2.0,43,0.00,CLR,SCT,0.00,WeatherDisplay:10.37,2013-05-06 20:03:00,
2013-05-06 16:06:00,79.6,54.5,29.94,SSW,212,3.5,3.5,42,0.00,CLR,SCT,0.00,WeatherDisplay:10.37,2013-05-06 20:06:00,
2013-05-06 16:07:00,79.5,54.4,29.94,South,172,3.5,3.5,42,0.00,CLR,SCT,0.00,WeatherDisplay:10.37,2013-05-06 20:07:00,
2013-05-06 16:08:00,79.4,54.3,29.94,SSE,159,3.5,3.5,42,0.00,CLR,SCT,0.00,WeatherDisplay:10.37,2013-05-06 20:08:00,
2013-05-06 16:09:00,79.4,54.3,29.94,SSE,149,4.6,4.6,42,0.00,CLR,SCT,0.00,WeatherDisplay:10.37,2013-05-06 20:09:00,
2013-05-06 16:11:00,79.2,54.8,29.94,ESE,104,3.5,3.5,43,0.00,CLR,SCT,0.00,WeatherDisplay:10.37,2013-05-06 20:11:00,
2013-05-06 16:13:00,79.2,54.1,29.94,SE,125,3.5,3.5,42,0.00,CLR,SCT,0.00,WeatherDisplay:10.37,2013-05-06 20:13:00,
2013-05-06 16:14:00,79.2,54.8,29.94,NE,36,3.5,3.5,43,0.00,CLR,SCT,0.00,WeatherDisplay:10.37,2013-05-06 20:14:00,
2013-05-06 16:17:00,79.1,55.3,29.94,SSW,207,3.5,3.5,44,0.00,CLR,SCT,0.00,WeatherDisplay:10.37,2013-05-06 20:17:00,
2013-05-06 16:18:00,79.1,54.7,29.94,SW,222,3.5,3.5,43,0.00,CLR,SCT,0.00,WeatherDisplay:10.37,2013-05-06 20:18:00,
2013-05-06 16:19:00,79.2,55.4,29.94,South,181,8.0,8.0,44,0.00,CLR,SCT,0.00,WeatherDisplay:10.37,2013-05-06 20:19:00,
2013-05-06 16:22:00,79.0,55.2,29.94,NW,308,2.3,2.3,44,0.00,CLR,SCT,0.00,WeatherDisplay:10.37,2013-05-06 20:22:00,
2013-05-06 16:23:00,79.0,54.6,29.94,West,263,3.5,3.5,43,0.00,CLR,SCT,0.00,WeatherDisplay:10.37,2013-05-06 20:23:00,
2013-05-06 16:24:00,79.0,55.2,29.94,SW,214,3.5,3.5,44,0.00,CLR,SCT,0.00,WeatherDisplay:10.37,2013-05-06 20:24:00,
2013-05-06 16:28:00,79.0,53.9,29.94,SW,214,3.5,3.5,42,0.00,CLR,SCT,0.00,WeatherDisplay:10.37,2013-05-06 20:28:00,
2013-05-06 16:29:00,79.0,54.6,29.94,NNW,330,2.3,2.3,43,0.00,CLR,SCT,0.00,WeatherDisplay:10.37,2013-05-06 20:29:00,
2013-05-06 16:30:00,78.9,55.1,29.94,WSW,245,3.0,3.0,44,0.00,CLR,SCT,0.00,WeatherDisplay:10.37,2013-05-06 20:30:00,
2013-05-06 16:33:00,78.7,55.0,29.94,WNW,287,3.5,3.5,44,0.00,CLR,SCT,0.00,WeatherDisplay:10.37,2013-05-06 20:33:00,
2013-05-06 16:34:00,78.7,55.0,29.93,SE,142,2.3,2.3,44,0.00,CLR,SCT,0.00,WeatherDisplay:10.37,2013-05-06 20:34:00,
2013-05-06 16:35:00,78.8,55.0,29.93,WNW,283,1.0,1.1,44,0.00,CLR,SCT,0.00,WeatherDisplay:10.37,2013-05-06 20:35:00,
2013-05-06 16:38:00,78.8,53.8,29.94,NE,41,3.5,3.5,42,0.00,CLR,SCT,0.00,WeatherDisplay:10.37,2013-05-06 20:38:00,
2013-05-06 16:39:00,78.8,54.4,29.94,SE,142,2.3,2.3,43,0.00,CLR,SCT,0.00,WeatherDisplay:10.37,2013-05-06 20:39:00,
2013-05-06 16:41:00,78.6,52.9,29.94,ESE,108,2.3,2.3,41,0.00,CLR,SCT,0.00,WeatherDisplay:10.37,2013-05-06 20:41:00,
2013-05-06 16:44:00,78.6,53.6,29.94,NNE,30,2.3,2.3,42,0.00,CLR,SCT,0.00,WeatherDisplay:10.37,2013-05-06 20:44:00,
2013-05-06 16:45:00,78.6,54.2,29.94,WSW,238,3.5,3.5,43,0.00,CLR,SCT,0.00,WeatherDisplay:10.37,2013-05-06 20:45:00,
2013-05-06 16:46:00,78.7,54.3,29.94,WSW,246,3.5,3.5,43,0.00,CLR,SCT,0.00,WeatherDisplay:10.37,2013-05-06 20:46:00,
2013-05-06 16:49:00,78.6,54.9,29.94,NE,49,3.5,3.5,44,0.00,CLR,SCT,0.00,WeatherDisplay:10.37,2013-05-06 20:49:00,
2013-05-06 16:50:00,78.5,54.8,29.94,ESE,102,1.0,3.0,44,0.00,CLR,SCT,0.00,WeatherDisplay:10.37,2013-05-06 20:50:00,
2013-05-06 16:51:00,78.4,54.7,29.93,East,93,1.1,1.1,44,0.00,CLR,SCT,0.00,WeatherDisplay:10.37,2013-05-06 20:51:00,
2013-05-06 16:54:00,78.6,53.6,29.94,South,179,3.5,3.5,42,0.00,CLR,SCT,0.00,WeatherDisplay:10.37,2013-05-06 20:54:00,
2013-05-06 16:55:00,78.6,53.6,29.94,SW,229,2.3,2.3,42,0.00,CLR,SCT,0.00,WeatherDisplay:10.37,2013-05-06 20:55:00,
2013-05-06 16:56:00,78.7,53.7,29.94,SSE,150,3.5,3.5,42,0.00,CLR,SCT,0.00,WeatherDisplay:10.37,2013-05-06 20:56:00,
2013-05-06 16:59:00,78.8,53.1,29.94,NNE,22,3.5,3.5,41,0.00,CLR,SCT,0.00,WeatherDisplay:10.37,2013-05-06 20:59:00,
2013-05-06 17:00:00,78.8,53.1,29.94,SE,130,2.3,2.3,41,0.00,CLR,SCT,0.00,WeatherDisplay:10.37,2013-05-06 21:00:00,
2013-05-06 17:01:00,78.7,53.7,29.93,NE,49,2.3,2.3,42,0.00,CLR,SCT,0.00,WeatherDisplay:10.37,2013-05-06 21:01:00,
2013-05-06 17:04:00,78.5,54.1,29.94,SSW,201,2.0,2.0,43,0.00,CLR,SCT,0.00,WeatherDisplay:10.37,2013-05-06 21:04:00,
2013-05-06 17:05:00,78.5,54.1,29.94,ESE,117,1.0,4.0,43,0.00,CLR,SCT,0.00,WeatherDisplay:10.37,2013-05-06 21:05:00,
2013-05-06 17:06:00,78.4,54.0,29.93,NNW,346,2.3,2.3,43,0.00,CLR,SCT,0.00,WeatherDisplay:10.37,2013-05-06 21:06:00,
2013-05-06 17:10:00,78.3,54.0,29.93,East,90,1.1,1.1,43,0.00,CLR,SCT,0.00,WeatherDisplay:10.37,2013-05-06 21:10:00,
2013-05-06 17:11:00,78.3,52.7,29.93,WSW,243,3.5,3.5,41,0.00,CLR,SCT,0.00,WeatherDisplay:10.37,2013-05-06 21:11:00,
2013-05-06 17:15:00,77.9,52.3,29.93,East,97,3.5,3.5,41,0.00,CLR,SCT,0.00,WeatherDisplay:10.37,2013-05-06 21:15:00,
2013-05-06 17:16:00,77.9,52.3,29.93,SSE,158,3.5,3.5,41,0.00,CLR,SCT,0.00,WeatherDisplay:10.37,2013-05-06 21:16:00,
2013-05-06 17:20:00,77.8,52.9,29.93,SSE,151,2.3,2.3,42,0.00,CLR,SCT,0.00,WeatherDisplay:10.37,2013-05-06 21:20:00,
2013-05-06 17:21:00,77.8,52.9,29.93,West,273,4.0,4.0,42,0.00,CLR,SCT,0.00,WeatherDisplay:10.37,2013-05-06 21:21:00,
2013-05-06 17:22:00,77.8,53.5,29.93,South,191,3.5,3.5,43,0.00,CLR,SCT,0.00,WeatherDisplay:10.37,2013-05-06 21:22:00,
2013-05-06 17:25:00,77.5,53.2,29.93,NE,46,3.5,3.5,43,0.00,CLR,SCT,0.00,WeatherDisplay:10.37,2013-05-06 21:25:00,
2013-05-06 17:26:00,77.4,53.8,29.93,NE,43,2.0,2.0,44,0.00,CLR,SCT,0.00,WeatherDisplay:10.37,2013-05-06 21:26:00,
2013-05-06 17:27:00,77.3,53.1,29.93,NE,53,3.5,3.5,43,0.00,CLR,SCT,0.00,WeatherDisplay:10.37,2013-05-06 21:27:00,
2013-05-06 17:30:00,77.1,52.9,29.93,NE,46,1.1,1.1,43,0.00,CLR,SCT,0.00,WeatherDisplay:10.37,2013-05-06 21:30:00,
2013-05-06 17:31:00,77.1,53.5,29.93,NE,47,1.1,1.1,44,0.00,CLR,SCT,0.00,WeatherDisplay:10.37,2013-05-06 21:31:00,
2013-05-06 17:32:00,77.0,53.4,29.93,SW,225,2.0,2.0,44,0.00,CLR,SCT,0.00,WeatherDisplay:10.37,2013-05-06 21:32:00,
2013-05-06 17:35:00,77.2,53.0,29.93,ESE,104,3.5,3.5,43,0.00,CLR,SCT,0.00,WeatherDisplay:10.37,2013-05-06 21:35:00,
2013-05-06 17:36:00,77.2,53.0,29.93,WSW,249,3.5,3.5,43,0.00,CLR,SCT,0.00,WeatherDisplay:10.37,2013-05-06 21:36:00,
2013-05-06 17:37:00,77.2,52.3,29.93,NE,37,2.3,2.3,42,0.00,CLR,SCT,0.00,WeatherDisplay:10.37,2013-05-06 21:37:00,
2013-05-06 17:40:00,77.4,53.1,29.93,NE,45,1.1,1.1,43,0.00,CLR,SCT,0.00,WeatherDisplay:10.37,2013-05-06 21:40:00,
2013-05-06 17:41:00,77.4,53.1,29.93,NE,53,1.1,1.1,43,0.00,CLR,SCT,0.00,WeatherDisplay:10.37,2013-05-06 21:41:00,
2013-05-06 17:42:00,77.5,52.6,29.93,SSW,201,1.1,1.1,42,0.00,CLR,SCT,0.00,WeatherDisplay:10.37,2013-05-06 21:42:00,
2013-05-06 17:43:00,77.6,52.7,29.93,ESE,111,1.1,1.1,42,0.00,CLR,SCT,0.00,WeatherDisplay:10.37,2013-05-06 21:43:00,
2013-05-06 17:45:00,77.5,52.6,29.93,SW,215,3.5,3.5,42,0.00,CLR,SCT,0.00,WeatherDisplay:10.37,2013-05-06 21:45:00,
2013-05-06 17:46:00,77.4,52.5,29.93,SSE,154,3.5,3.5,42,0.00,CLR,SCT,0.00,WeatherDisplay:10.37,2013-05-06 21:46:00,
2013-05-06 17:47:00,77.4,52.5,29.93,SE,145,4.6,4.6,42,0.00,CLR,SCT,0.00,WeatherDisplay:10.37,2013-05-06 21:47:00,
2013-05-06 17:48:00,77.3,52.4,29.93,South,184,4.6,4.6,42,0.00,CLR,SCT,0.00,WeatherDisplay:10.37,2013-05-06 21:48:00,
2013-05-06 17:50:00,76.8,52.6,29.93,SSE,166,5.8,5.8,43,0.00,CLR,SCT,0.00,WeatherDisplay:10.37,2013-05-06 21:50:00,
2013-05-06 17:51:00,76.7,52.5,29.93,SSW,210,3.5,3.5,43,0.00,CLR,SCT,0.00,WeatherDisplay:10.37,2013-05-06 21:51:00,
2013-05-06 17:52:00,76.6,52.4,29.93,ESE,114,2.3,2.3,43,0.00,CLR,SCT,0.00,WeatherDisplay:10.37,2013-05-06 21:52:00,
2013-05-06 17:53:00,76.6,52.4,29.93,NW,314,3.5,3.5,43,0.00,CLR,SCT,0.00,WeatherDisplay:10.37,2013-05-06 21:53:00,
2013-05-06 17:56:00,76.4,52.2,29.93,SSW,208,3.5,3.5,43,0.00,CLR,SCT,0.00,WeatherDisplay:10.37,2013-05-06 21:56:00,
2013-05-06 17:57:00,76.2,52.1,29.93,NNW,328,3.5,3.5,43,0.00,CLR,SCT,0.00,WeatherDisplay:10.37,2013-05-06 21:57:00,
2013-05-06 17:58:00,76.2,52.1,29.93,SW,232,3.5,3.5,43,0.00,CLR,SCT,0.00,WeatherDisplay:10.37,2013-05-06 21:58:00,
2013-05-06 18:01:00,75.9,52.4,29.93,SSW,210,1.1,1.1,44,0.00,CLR,SCT,0.00,WeatherDisplay:10.37,2013-05-06 22:01:00,
2013-05-06 18:02:00,75.9,52.4,29.93,SSW,212,1.1,1.1,44,0.00,CLR,SCT,0.00,WeatherDisplay:10.37,2013-05-06 22:02:00,
2013-05-06 18:03:00,76.0,53.7,29.93,SSW,212,0.0,0.1,46,0.00,CLR,SCT,0.00,WeatherDisplay:10.37,2013-05-06 22:03:00,
2013-05-06 18:06:00,76.3,53.4,29.93,SSE,157,1.1,1.1,45,0.00,CLR,SCT,0.00,WeatherDisplay:10.37,2013-05-06 22:06:00,
2013-05-06 18:07:00,76.3,53.4,29.93,WSW,253,3.0,3.0,45,0.00,CLR,SCT,0.00,WeatherDisplay:10.37,2013-05-06 22:07:00,
2013-05-06 18:08:00,76.3,52.8,29.93,WNW,302,3.5,3.5,44,0.00,CLR,SCT,0.00,WeatherDisplay:10.37,2013-05-06 22:08:00,
2013-05-06 18:11:00,75.7,52.8,29.93,ESE,105,3.5,3.5,45,0.00,CLR,SCT,0.00,WeatherDisplay:10.37,2013-05-06 22:11:00,
2013-05-06 18:12:00,75.5,52.7,29.93,SW,231,3.0,3.0,45,0.00,CLR,SCT,0.00,WeatherDisplay:10.37,2013-05-06 22:12:00,
2013-05-06 18:13:00,75.4,52.6,29.93,WSW,240,3.5,3.5,45,0.00,CLR,SCT,0.00,WeatherDisplay:10.37,2013-05-06 22:13:00,
2013-05-06 18:14:00,75.3,52.5,29.93,SSW,193,3.5,3.5,45,0.00,CLR,SCT,0.00,WeatherDisplay:10.37,2013-05-06 22:14:00,
2013-05-06 18:16:00,74.8,53.2,29.93,ESE,104,3.5,3.5,47,0.00,CLR,SCT,0.00,WeatherDisplay:10.37,2013-05-06 22:16:00,
2013-05-06 18:17:00,74.7,53.1,29.94,NE,44,3.5,3.5,47,0.00,CLR,SCT,0.00,WeatherDisplay:10.37,2013-05-06 22:17:00,
2013-05-06 18:18:00,74.5,53.5,29.93,East,90,2.3,2.3,48,0.00,CLR,SCT,0.00,WeatherDisplay:10.37,2013-05-06 22:18:00,
2013-05-06 18:19:00,74.5,53.5,29.93,ESE,108,1.1,1.1,48,0.00,CLR,SCT,0.00,WeatherDisplay:10.37,2013-05-06 22:19:00,
2013-05-06 18:22:00,74.1,53.7,29.93,West,261,1.1,1.2,49,0.00,CLR,SCT,0.00,WeatherDisplay:10.37,2013-05-06 22:22:00,
2013-05-06 18:23:00,73.9,53.5,29.93,SW,229,2.3,2.3,49,0.00,CLR,SCT,0.00,WeatherDisplay:10.37,2013-05-06 22:23:00,
2013-05-06 18:24:00,73.8,53.4,29.93,SSE,152,3.5,3.5,49,0.00,CLR,SCT,0.00,WeatherDisplay:10.37,2013-05-06 22:24:00,
2013-05-06 18:27:00,73.2,53.4,29.94,WSW,256,3.5,3.5,50,0.00,CLR,SCT,0.00,WeatherDisplay:10.37,2013-05-06 22:27:00,
2013-05-06 18:28:00,73.1,53.4,29.94,SW,222,3.5,3.5,50,0.00,CLR,SCT,0.00,WeatherDisplay:10.37,2013-05-06 22:28:00,
2013-05-06 18:29:00,72.8,53.6,29.94,SSE,157,3.5,3.5,51,0.00,CLR,SCT,0.00,WeatherDisplay:10.37,2013-05-06 22:29:00,
2013-05-06 18:32:00,72.3,53.7,29.94,SW,235,2.3,2.3,52,0.00,CLR,SCT,0.00,WeatherDisplay:10.37,2013-05-06 22:32:00,
2013-05-06 18:33:00,72.2,53.6,29.94,ESE,102,3.5,3.5,52,0.00,CLR,SCT,0.00,WeatherDisplay:10.37,2013-05-06 22:33:00,
2013-05-06 18:34:00,72.1,53.0,29.94,SW,232,2.3,2.3,51,0.00,CLR,SCT,0.00,WeatherDisplay:10.37,2013-05-06 22:34:00,
2013-05-06 18:37:00,71.8,52.7,29.94,SSW,193,2.3,2.3,51,0.00,CLR,SCT,0.00,WeatherDisplay:10.37,2013-05-06 22:37:00,
2013-05-06 18:38:00,71.7,52.6,29.94,SW,225,3.5,3.5,51,0.00,CLR,SCT,0.00,WeatherDisplay:10.37,2013-05-06 22:38:00,
2013-05-06 18:39:00,71.6,53.0,29.94,ESE,105,2.3,2.4,52,0.00,CLR,SCT,0.00,WeatherDisplay:10.37,2013-05-06 22:39:00,
2013-05-06 18:40:00,71.5,52.9,29.94,SE,136,5.8,5.8,52,0.00,CLR,SCT,0.00,WeatherDisplay:10.37,2013-05-06 22:40:00,
2013-05-06 18:43:00,71.1,52.6,29.94,SSE,165,2.3,0.0,52,0.00,CLR,SCT,0.00,WeatherDisplay:10.37,2013-05-06 22:43:00,
2013-05-06 18:44:00,71.0,52.5,29.94,SSW,207,2.0,2.0,52,0.00,CLR,SCT,0.00,WeatherDisplay:10.37,2013-05-06 22:44:00,
2013-05-06 18:45:00,71.0,52.5,29.94,SSW,194,3.5,3.5,52,0.00,CLR,SCT,0.00,WeatherDisplay:10.37,2013-05-06 22:45:00,
2013-05-06 18:48:00,70.8,52.8,29.94,SSE,163,4.6,4.6,53,0.00,CLR,SCT,0.00,WeatherDisplay:10.37,2013-05-06 22:48:00,
2013-05-06 18:49:00,70.7,52.7,29.94,SW,232,3.5,3.5,53,0.00,CLR,SCT,0.00,WeatherDisplay:10.37,2013-05-06 22:49:00,
2013-05-06 18:50:00,70.6,52.6,29.94,SSW,211,3.5,3.5,53,0.00,CLR,SCT,0.00,WeatherDisplay:10.37,2013-05-06 22:50:00,
2013-05-06 18:51:00,70.5,52.5,29.94,NE,53,1.1,1.1,53,0.00,CLR,SCT,0.00,WeatherDisplay:10.37,2013-05-06 22:51:00,
2013-05-06 18:53:00,70.4,52.4,29.94,WSW,255,3.5,3.5,53,0.00,CLR,SCT,0.00,WeatherDisplay:10.37,2013-05-06 22:53:00,
2013-05-06 18:54:00,70.3,52.4,29.94,WSW,256,3.5,3.5,53,0.00,CLR,SCT,0.00,WeatherDisplay:10.37,2013-05-06 22:54:00,
2013-05-06 18:55:00,70.3,52.4,29.94,SSW,210,0.0,4.0,53,0.00,CLR,SCT,0.00,WeatherDisplay:10.37,2013-05-06 22:55:00,
2013-05-06 18:56:00,70.2,52.8,29.94,WSW,239,0.0,0.0,54,0.00,CLR,SCT,0.00,WeatherDisplay:10.37,2013-05-06 22:56:00,
2013-05-06 18:58:00,70.1,53.2,29.94,SW,229,1.1,1.1,55,0.00,CLR,SCT,0.00,WeatherDisplay:10.37,2013-05-06 22:58:00,
2013-05-06 18:59:00,70.1,53.2,29.94,SW,225,0.0,0.0,55,0.00,CLR,SCT,0.00,WeatherDisplay:10.37,2013-05-06 22:59:00,
2013-05-06 19:00:00,70.0,53.1,29.94,SW,225,0.0,0.0,55,0.00,CLR,SCT,0.00,WeatherDisplay:10.37,2013-05-06 23:00:00,
2013-05-06 19:01:00,70.0,53.6,29.94,WSW,253,1.0,1.0,56,0.00,CLR,SCT,0.00,WeatherDisplay:10.37,2013-05-06 23:01:00,
2013-05-06 19:03:00,69.9,52.5,29.95,WSW,253,2.0,2.0,54,0.00,CLR,SCT,0.00,WeatherDisplay:10.37,2013-05-06 23:03:00,
2013-05-06 19:05:00,69.8,52.4,29.94,SSW,210,1.0,3.0,54,0.00,CLR,SCT,0.00,WeatherDisplay:10.37,2013-05-06 23:05:00,
2013-05-06 19:06:00,69.7,52.8,29.95,South,191,1.1,1.1,55,0.00,CLR,SCT,0.00,WeatherDisplay:10.37,2013-05-06 23:06:00,
2013-05-06 19:08:00,69.5,52.6,29.95,ESE,114,1.1,1.1,55,0.00,CLR,SCT,0.00,WeatherDisplay:10.37,2013-05-06 23:08:00,
2013-05-06 19:10:00,69.4,53.0,29.95,ENE,70,1.1,0.0,56,0.00,CLR,SCT,0.00,WeatherDisplay:10.37,2013-05-06 23:10:00,
2013-05-06 19:11:00,69.3,52.4,29.95,ESE,115,1.1,1.1,55,0.00,CLR,SCT,0.00,WeatherDisplay:10.37,2013-05-06 23:11:00,
2013-05-06 19:12:00,69.3,52.4,29.95,SSW,212,1.1,1.1,55,0.00,CLR,SCT,0.00,WeatherDisplay:10.37,2013-05-06 23:12:00,
2013-05-06 19:14:00,69.2,52.3,29.95,NE,36,3.5,3.5,55,0.00,CLR,SCT,0.00,WeatherDisplay:10.37,2013-05-06 23:14:00,
2013-05-06 19:15:00,69.1,52.2,29.95,West,270,2.3,2.3,55,0.00,CLR,SCT,0.00,WeatherDisplay:10.37,2013-05-06 23:15:00,
2013-05-06 19:16:00,69.0,52.6,29.95,West,266,4.6,4.6,56,0.00,CLR,SCT,0.00,WeatherDisplay:10.37,2013-05-06 23:16:00,
2013-05-06 19:17:00,68.9,52.6,29.95,NE,40,4.6,4.6,56,0.00,CLR,SCT,0.00,WeatherDisplay:10.37,2013-05-06 23:17:00,
2013-05-06 19:19:00,68.8,52.9,29.95,ESE,105,1.1,0.0,57,0.00,CLR,SCT,0.00,WeatherDisplay:10.37,2013-05-06 23:19:00,
2013-05-06 19:20:00,68.8,52.9,29.95,ENE,67,1.1,0.0,57,0.00,CLR,SCT,0.00,WeatherDisplay:10.37,2013-05-06 23:20:00,
2013-05-06 19:21:00,68.7,52.8,29.95,ENE,67,0.0,0.0,57,0.00,CLR,SCT,0.00,WeatherDisplay:10.37,2013-05-06 23:21:00,
2013-05-06 19:22:00,68.6,52.8,29.95,East,88,1.1,1.1,57,0.00,CLR,SCT,0.00,WeatherDisplay:10.37,2013-05-06 23:22:00,
2013-05-06 19:24:00,68.6,52.8,29.95,NNW,342,1.1,1.1,57,0.00,CLR,SCT,0.00,WeatherDisplay:10.37,2013-05-06 23:24:00,
2013-05-06 19:26:00,68.5,52.7,29.95,SSE,148,0.0,0.0,57,0.00,CLR,SCT,0.00,WeatherDisplay:10.37,2013-05-06 23:26:00,
2013-05-06 19:27:00,68.4,52.6,29.95,SSW,212,1.1,1.2,57,0.00,CLR,SCT,0.00,WeatherDisplay:10.37,2013-05-06 23:27:00,
2013-05-06 19:30:00,68.3,52.5,29.95,SSW,213,4.6,4.6,57,0.00,CLR,SCT,0.00,WeatherDisplay:10.37,2013-05-06 23:30:00,
2013-05-06 19:31:00,68.2,52.9,29.95,SE,133,3.5,3.5,58,0.00,CLR,SCT,0.00,WeatherDisplay:10.37,2013-05-06 23:31:00,
2013-05-06 19:32:00,68.1,52.8,29.96,SW,214,2.3,2.3,58,0.00,CLR,SCT,0.00,WeatherDisplay:10.37,2013-05-06 23:32:00,
2013-05-06 19:35:00,68.0,53.1,29.96,SE,145,1.1,1.1,59,0.00,CLR,SCT,0.00,WeatherDisplay:10.37,2013-05-06 23:35:00,
2013-05-06 19:36:00,67.9,53.0,29.96,SE,145,1.1,1.1,59,0.00,CLR,SCT,0.00,WeatherDisplay:10.37,2013-05-06 23:36:00,
2013-05-06 19:38:00,67.8,52.9,29.96,ESE,117,3.5,3.5,59,0.00,CLR,SCT,0.00,WeatherDisplay:10.37,2013-05-06 23:38:00,
2013-05-06 19:40:00,67.7,53.3,29.96,NE,43,1.1,1.1,60,0.00,CLR,SCT,0.00,WeatherDisplay:10.37,2013-05-06 23:40:00,
2013-05-06 19:41:00,67.6,53.2,29.96,ESE,114,1.1,1.1,60,0.00,CLR,SCT,0.00,WeatherDisplay:10.37,2013-05-06 23:41:00,
2013-05-06 19:43:00,67.5,53.1,29.96,ENE,58,1.1,1.1,60,0.00,CLR,SCT,0.00,WeatherDisplay:10.37,2013-05-06 23:43:00,
2013-05-06 19:45:00,67.4,53.0,29.96,ENE,71,2.3,2.3,60,0.00,CLR,SCT,0.00,WeatherDisplay:10.37,2013-05-06 23:45:00,
2013-05-06 19:46:00,67.4,53.5,29.96,NE,38,1.1,1.1,61,0.00,CLR,SCT,0.00,WeatherDisplay:10.37,2013-05-06 23:46:00,
2013-05-06 19:47:00,67.3,53.4,29.96,ENE,74,1.1,1.1,61,0.00,CLR,SCT,0.00,WeatherDisplay:10.37,2013-05-06 23:47:00,
2013-05-06 19:48:00,67.3,52.9,29.96,South,176,1.1,1.1,60,0.00,CLR,SCT,0.00,WeatherDisplay:10.37,2013-05-06 23:48:00,
2013-05-06 19:51:00,67.2,53.3,29.96,SSE,150,1.1,1.1,61,0.00,CLR,SCT,0.00,WeatherDisplay:10.37,2013-05-06 23:51:00,
2013-05-06 19:52:00,67.1,53.2,29.96,ESE,110,1.1,1.1,61,0.00,CLR,SCT,0.00,WeatherDisplay:10.37,2013-05-06 23:52:00,
2013-05-06 19:53:00,67.0,53.1,29.96,SE,125,2.3,2.3,61,0.00,CLR,SCT,0.00,WeatherDisplay:10.37,2013-05-06 23:53:00,
2013-05-06 19:56:00,66.9,53.5,29.96,WNW,285,1.1,1.1,62,0.00,CLR,SCT,0.00,WeatherDisplay:10.37,2013-05-06 23:56:00,
2013-05-06 19:57:00,66.8,53.4,29.96,WNW,300,2.0,2.0,62,0.00,CLR,SCT,0.00,WeatherDisplay:10.37,2013-05-06 23:57:00,
2013-05-06 19:58:00,66.7,53.3,29.96,SSW,195,2.3,2.3,62,0.00,CLR,SCT,0.00,WeatherDisplay:10.37,2013-05-06 23:58:00,
2013-05-06 20:01:00,66.6,53.2,29.97,SW,229,1.0,1.0,62,0.00,CLR,SCT,0.00,WeatherDisplay:10.37,2013-05-07 00:01:00,
2013-05-06 20:02:00,66.5,53.5,29.97,SE,132,2.0,2.0,63,0.00,CLR,SCT,0.00,WeatherDisplay:10.37,2013-05-07 00:02:00,
2013-05-06 20:03:00,66.5,53.5,29.97,SW,225,2.3,2.3,63,0.00,CLR,SCT,0.00,WeatherDisplay:10.37,2013-05-07 00:03:00,
2013-05-06 20:07:00,66.3,53.8,29.97,SSW,207,1.0,1.0,64,0.00,CLR,SCT,0.00,WeatherDisplay:10.37,2013-05-07 00:07:00,
2013-05-06 20:08:00,66.3,53.8,29.97,SE,125,3.5,3.5,64,0.00,CLR,SCT,0.00,WeatherDisplay:10.37,2013-05-07 00:08:00,
2013-05-06 20:12:00,66.0,53.9,29.97,SW,232,1.1,1.1,65,0.00,CLR,SCT,0.00,WeatherDisplay:10.37,2013-05-07 00:12:00,
2013-05-06 20:13:00,65.9,53.8,29.97,West,259,1.1,1.1,65,0.00,CLR,SCT,0.00,WeatherDisplay:10.37,2013-05-07 00:13:00,
2013-05-06 20:14:00,65.9,53.8,29.97,West,259,3.5,3.5,65,0.00,CLR,SCT,0.00,WeatherDisplay:10.37,2013-05-07 00:14:00,
2013-05-06 20:17:00,65.7,53.6,29.97,SW,215,0.0,0.1,65,0.00,CLR,SCT,0.00,WeatherDisplay:10.37,2013-05-07 00:17:00,
2013-05-06 20:18:00,65.7,53.6,29.97,SW,215,1.1,1.1,65,0.00,CLR,SCT,0.00,WeatherDisplay:10.37,2013-05-07 00:18:00,
2013-05-06 20:19:00,65.6,53.5,29.97,SW,215,1.1,0.0,65,0.00,CLR,SCT,0.00,WeatherDisplay:10.37,2013-05-07 00:19:00,
2013-05-06 20:23:00,65.4,53.7,29.97,East,96,0.0,0.0,66,0.00,CLR,SCT,0.00,WeatherDisplay:10.37,2013-05-07 00:23:00,
2013-05-06 20:24:00,65.4,53.7,29.97,East,96,0.0,0.0,66,0.00,CLR,SCT,0.00,WeatherDisplay:10.37,2013-05-07 00:24:00,
2013-05-06 20:29:00,65.1,53.9,29.98,ESE,102,0.0,0.0,67,0.00,CLR,SCT,0.00,WeatherDisplay:10.37,2013-05-07 00:29:00,
2013-05-06 20:34:00,64.7,53.5,29.98,NNE,22,0.0,0.0,67,0.00,CLR,SCT,0.00,WeatherDisplay:10.37,2013-05-07 00:34:00,
2013-05-06 20:39:00,64.4,53.6,29.98,NE,41,0.0,0.0,68,0.00,CLR,SCT,0.00,WeatherDisplay:10.37,2013-05-07 00:39:00,
2013-05-06 20:40:00,64.4,53.6,29.98,NE,47,0.0,1.0,68,0.00,CLR,SCT,0.00,WeatherDisplay:10.37,2013-05-07 00:40:00,
2013-05-06 20:44:00,64.1,53.3,29.98,NE,43,0.0,0.0,68,0.00,CLR,SCT,0.00,WeatherDisplay:10.37,2013-05-07 00:44:00,
2013-05-06 20:45:00,64.1,53.3,29.98,NE,43,1.1,0.0,68,0.00,CLR,SCT,0.00,WeatherDisplay:10.37,2013-05-07 00:45:00,
2013-05-06 20:49:00,63.8,53.4,29.98,East,86,1.1,0.0,69,0.00,CLR,SCT,0.00,WeatherDisplay:10.37,2013-05-07 00:49:00,
2013-05-06 20:50:00,63.8,53.4,29.98,East,86,0.0,0.0,69,0.00,CLR,SCT,0.00,WeatherDisplay:10.37,2013-05-07 00:50:00,
2013-05-06 20:54:00,63.6,53.6,29.98,South,169,2.3,2.3,70,0.00,CLR,SCT,0.00,WeatherDisplay:10.37,2013-05-07 00:54:00,
2013-05-06 20:55:00,63.5,53.5,29.98,South,169,0.0,0.0,70,0.00,CLR,SCT,0.00,WeatherDisplay:10.37,2013-05-07 00:55:00,
2013-05-06 20:59:00,63.3,53.3,29.99,NE,49,1.1,1.1,70,0.00,CLR,SCT,0.00,WeatherDisplay:10.37,2013-05-07 00:59:00,
2013-05-06 21:00:00,63.3,53.3,29.99,SE,129,3.5,0.0,70,0.00,CLR,SCT,0.00,WeatherDisplay:10.37,2013-05-07 01:00:00,
2013-05-06 21:05:00,63.3,53.3,29.99,NE,56,0.0,0.0,70,0.00,CLR,SCT,0.00,WeatherDisplay:10.37,2013-05-07 01:05:00,
2013-05-06 21:06:00,63.2,53.3,29.99,ENE,77,0.0,0.0,70,0.00,CLR,SCT,0.00,WeatherDisplay:10.37,2013-05-07 01:06:00,
2013-05-06 21:10:00,63.1,53.2,29.99,SSW,212,0.0,0.1,70,0.00,CLR,SCT,0.00,WeatherDisplay:10.37,2013-05-07 01:10:00,
2013-05-06 21:11:00,63.1,53.2,29.99,SSW,212,0.0,0.1,70,0.00,CLR,SCT,0.00,WeatherDisplay:10.37,2013-05-07 01:11:00,
2013-05-06 21:15:00,62.9,53.4,30.00,ESE,111,1.1,0.0,71,0.00,CLR,SCT,0.00,WeatherDisplay:10.37,2013-05-07 01:15:00,
2013-05-06 21:16:00,62.9,53.4,30.00,ENE,77,0.0,0.0,71,0.00,CLR,SCT,0.00,WeatherDisplay:10.37,2013-05-07 01:16:00,
2013-05-06 21:21:00,62.7,53.2,30.00,SE,142,0.0,0.0,71,0.00,CLR,SCT,0.00,WeatherDisplay:10.37,2013-05-07 01:21:00,
2013-05-06 21:22:00,62.7,53.2,30.00,SSE,155,1.1,1.1,71,0.00,CLR,SCT,0.00,WeatherDisplay:10.37,2013-05-07 01:22:00,
2013-05-06 21:26:00,62.6,53.1,30.00,NE,39,1.1,0.0,71,0.00,CLR,SCT,0.00,WeatherDisplay:10.37,2013-05-07 01:26:00,
2013-05-06 21:27:00,62.5,53.0,30.00,NE,39,1.1,0.0,71,0.00,CLR,SCT,0.00,WeatherDisplay:10.37,2013-05-07 01:27:00,
2013-05-06 21:31:00,62.4,53.3,30.00,SE,125,0.0,0.0,72,0.00,CLR,SCT,0.00,WeatherDisplay:10.37,2013-05-07 01:31:00,
2013-05-06 21:32:00,62.4,53.3,30.00,SE,125,0.0,0.0,72,0.00,CLR,SCT,0.00,WeatherDisplay:10.37,2013-05-07 01:32:00,
2013-05-06 21:33:00,62.3,53.2,30.00,SE,126,0.0,0.0,72,0.00,CLR,SCT,0.00,WeatherDisplay:10.37,2013-05-07 01:33:00,
2013-05-06 21:36:00,62.2,53.1,30.00,SE,126,0.0,0.0,72,0.00,CLR,SCT,0.00,WeatherDisplay:10.37,2013-05-07 01:36:00,
2013-05-06 21:37:00,62.2,53.1,30.00,SE,126,0.0,0.0,72,0.00,CLR,SCT,0.00,WeatherDisplay:10.37,2013-05-07 01:37:00,
2013-05-06 21:38:00,62.1,53.0,30.00,SE,125,0.0,0.0,72,0.00,CLR,SCT,0.00,WeatherDisplay:10.37,2013-05-07 01:38:00,
2013-05-06 21:42:00,62.0,52.9,30.01,ESE,123,0.0,0.0,72,0.00,CLR,SCT,0.00,WeatherDisplay:10.37,2013-05-07 01:42:00,
2013-05-06 21:43:00,61.9,53.1,30.01,ESE,123,0.0,0.0,73,0.00,CLR,SCT,0.00,WeatherDisplay:10.37,2013-05-07 01:43:00,
2013-05-06 21:47:00,61.7,53.0,30.01,ESE,123,0.0,0.0,73,0.00,CLR,SCT,0.00,WeatherDisplay:10.37,2013-05-07 01:47:00,
2013-05-06 21:48:00,61.7,53.0,30.01,East,98,0.0,0.0,73,0.00,CLR,SCT,0.00,WeatherDisplay:10.37,2013-05-07 01:48:00,
2013-05-06 21:52:00,61.5,53.1,30.01,South,181,0.0,0.0,74,0.00,CLR,SCT,0.00,WeatherDisplay:10.37,2013-05-07 01:52:00,
2013-05-06 21:53:00,61.4,53.0,30.01,South,181,0.0,0.0,74,0.00,CLR,SCT,0.00,WeatherDisplay:10.37,2013-05-07 01:53:00,
2013-05-06 21:57:00,61.3,53.3,30.01,South,180,0.0,0.0,75,0.00,CLR,SCT,0.00,WeatherDisplay:10.37,2013-05-07 01:57:00,
2013-05-06 21:58:00,61.2,53.2,30.01,South,180,0.0,0.0,75,0.00,CLR,SCT,0.00,WeatherDisplay:10.37,2013-05-07 01:58:00,
2013-05-06 21:59:00,61.2,53.2,30.01,South,181,0.0,0.0,75,0.00,CLR,SCT,0.00,WeatherDisplay:10.37,2013-05-07 01:59:00,
2013-05-06 22:02:00,61.1,53.1,30.01,NE,47,0.0,0.0,75,0.00,CLR,SCT,0.00,WeatherDisplay:10.37,2013-05-07 02:02:00,
2013-05-06 22:03:00,61.1,53.1,30.01,NE,46,0.0,0.0,75,0.00,CLR,SCT,0.00,WeatherDisplay:10.37,2013-05-07 02:03:00,
2013-05-06 22:05:00,61.0,53.0,30.01,NE,47,1.1,0.0,75,0.00,CLR,SCT,0.00,WeatherDisplay:10.37,2013-05-07 02:05:00,
2013-05-06 22:08:00,60.9,53.3,30.01,NE,46,0.0,0.0,76,0.00,CLR,SCT,0.00,WeatherDisplay:10.37,2013-05-07 02:08:00,
2013-05-06 22:09:00,60.9,53.3,30.01,NE,40,1.1,0.0,76,0.00,CLR,SCT,0.00,WeatherDisplay:10.37,2013-05-07 02:09:00,
2013-05-06 22:10:00,60.8,53.2,30.01,NE,41,0.0,0.0,76,0.00,CLR,SCT,0.00,WeatherDisplay:10.37,2013-05-07 02:10:00,
2013-05-06 22:13:00,60.8,53.2,30.02,NE,41,1.1,1.1,76,0.00,CLR,SCT,0.00,WeatherDisplay:10.37,2013-05-07 02:13:00,
2013-05-06 22:14:00,60.7,53.1,30.01,NE,41,0.0,0.0,76,0.00,CLR,SCT,0.00,WeatherDisplay:10.37,2013-05-07 02:14:00,
2013-05-06 22:15:00,60.7,53.1,30.02,NE,41,0.0,0.0,76,0.00,CLR,SCT,0.00,WeatherDisplay:10.37,2013-05-07 02:15:00,
2013-05-06 22:18:00,60.7,53.4,30.02,NE,41,0.0,0.0,77,0.00,CLR,SCT,0.00,WeatherDisplay:10.37,2013-05-07 02:18:00,
2013-05-06 22:19:00,60.6,53.3,30.02,NE,41,1.1,0.0,77,0.00,CLR,SCT,0.00,WeatherDisplay:10.37,2013-05-07 02:19:00,
2013-05-06 22:20:00,60.6,53.0,30.02,NE,41,0.0,0.0,76,0.00,CLR,SCT,0.00,WeatherDisplay:10.37,2013-05-07 02:20:00,
2013-05-06 22:23:00,60.5,53.3,30.02,NE,41,0.0,0.0,77,0.00,CLR,SCT,0.00,WeatherDisplay:10.37,2013-05-07 02:23:00,
2013-05-06 22:24:00,60.5,53.3,30.02,NE,41,0.0,0.0,77,0.00,CLR,SCT,0.00,WeatherDisplay:10.37,2013-05-07 02:24:00,
2013-05-06 22:25:00,60.5,53.3,30.02,NE,41,0.0,0.0,77,0.00,CLR,SCT,0.00,WeatherDisplay:10.37,2013-05-07 02:25:00,
2013-05-06 22:26:00,60.5,53.3,30.02,NE,41,0.0,0.0,77,0.00,CLR,SCT,0.00,WeatherDisplay:10.37,2013-05-07 02:26:00,
2013-05-06 22:28:00,60.4,53.2,30.02,NE,41,0.0,0.0,77,0.00,CLR,SCT,0.00,WeatherDisplay:10.37,2013-05-07 02:28:00,
2013-05-06 22:29:00,60.4,53.2,30.02,NE,41,0.0,0.0,77,0.00,CLR,SCT,0.00,WeatherDisplay:10.37,2013-05-07 02:29:00,
2013-05-06 22:30:00,60.3,53.1,30.02,NE,41,0.0,0.0,77,0.00,CLR,SCT,0.00,WeatherDisplay:10.37,2013-05-07 02:30:00,
2013-05-06 22:31:00,60.3,53.1,30.02,NE,41,0.0,0.0,77,0.00,CLR,SCT,0.00,WeatherDisplay:10.37,2013-05-07 02:31:00,
2013-05-06 22:33:00,60.2,53.0,30.02,NE,41,0.0,0.0,77,0.00,CLR,SCT,0.00,WeatherDisplay:10.37,2013-05-07 02:33:00,
2013-05-06 22:34:00,60.1,53.2,30.02,NE,41,0.0,0.0,78,0.00,CLR,SCT,0.00,WeatherDisplay:10.37,2013-05-07 02:34:00,
2013-05-06 22:35:00,60.1,53.3,30.02,NE,41,0.0,0.0,78,0.00,CLR,SCT,0.00,WeatherDisplay:10.37,2013-05-07 02:35:00,
2013-05-06 22:37:00,60.1,53.2,30.02,NE,41,0.0,0.0,78,0.00,CLR,SCT,0.00,WeatherDisplay:10.37,2013-05-07 02:37:00,
2013-05-06 22:39:00,60.0,53.1,30.02,NE,41,0.0,0.0,78,0.00,CLR,SCT,0.00,WeatherDisplay:10.37,2013-05-07 02:39:00,
2013-05-06 22:40:00,59.9,53.0,30.02,NE,41,0.0,0.0,78,0.00,CLR,SCT,0.00,WeatherDisplay:10.37,2013-05-07 02:40:00,
2013-05-06 22:42:00,59.9,53.0,30.02,NE,41,0.0,0.0,78,0.00,CLR,SCT,0.00,WeatherDisplay:10.37,2013-05-07 02:42:00,
2013-05-06 22:44:00,59.7,53.2,30.02,NE,41,0.0,0.0,79,0.00,CLR,SCT,0.00,WeatherDisplay:10.37,2013-05-07 02:44:00,
2013-05-06 22:45:00,59.7,53.2,30.02,NE,41,0.0,0.0,79,0.00,CLR,SCT,0.00,WeatherDisplay:10.37,2013-05-07 02:45:00,
2013-05-06 22:46:00,59.6,53.1,30.02,NE,41,0.0,0.0,79,0.00,CLR,SCT,0.00,WeatherDisplay:10.37,2013-05-07 02:46:00,
2013-05-06 22:47:00,59.6,53.1,30.02,NE,41,0.0,0.0,79,0.00,CLR,SCT,0.00,WeatherDisplay:10.37,2013-05-07 02:47:00,
2013-05-06 22:49:00,59.5,53.0,30.02,NE,41,0.0,0.0,79,0.00,CLR,SCT,0.00,WeatherDisplay:10.37,2013-05-07 02:49:00,
2013-05-06 22:50:00,59.4,53.2,30.02,NE,41,0.0,0.0,80,0.00,CLR,SCT,0.00,WeatherDisplay:10.37,2013-05-07 02:50:00,
2013-05-06 22:51:00,59.3,53.1,30.02,NE,41,0.0,0.0,80,0.00,CLR,SCT,0.00,WeatherDisplay:10.37,2013-05-07 02:51:00,
2013-05-06 22:53:00,59.3,53.1,30.02,NE,41,0.0,0.0,80,0.00,CLR,SCT,0.00,WeatherDisplay:10.37,2013-05-07 02:53:00,
2013-05-06 22:54:00,59.2,53.0,30.02,NE,41,0.0,0.0,80,0.00,CLR,SCT,0.00,WeatherDisplay:10.37,2013-05-07 02:54:00,
2013-05-06 22:55:00,59.2,53.0,30.02,NE,41,0.0,0.0,80,0.00,CLR,SCT,0.00,WeatherDisplay:10.37,2013-05-07 02:55:00,
2013-05-06 22:56:00,59.1,52.9,30.02,NE,41,0.0,0.0,80,0.00,CLR,SCT,0.00,WeatherDisplay:10.37,2013-05-07 02:56:00,
2013-05-06 22:58:00,59.0,53.2,30.02,NE,41,0.0,0.0,81,0.00,CLR,SCT,0.00,WeatherDisplay:10.37,2013-05-07 02:58:00,
2013-05-06 22:59:00,58.9,53.1,30.02,NE,41,0.0,0.0,81,0.00,CLR,SCT,0.00,WeatherDisplay:10.37,2013-05-07 02:59:00,
2013-05-06 23:00:00,58.9,53.1,30.02,NE,41,0.0,0.0,81,0.00,CLR,SCT,0.00,WeatherDisplay:10.37,2013-05-07 03:00:00,
2013-05-06 23:01:00,58.8,53.0,30.02,NE,41,0.0,0.0,81,0.00,CLR,SCT,0.00,WeatherDisplay:10.37,2013-05-07 03:01:00,
2013-05-06 23:03:00,58.7,52.9,30.02,NE,41,0.0,0.0,81,0.00,CLR,SCT,0.00,WeatherDisplay:10.37,2013-05-07 03:03:00,
2013-05-06 23:04:00,58.7,52.9,30.02,NE,41,0.0,0.0,81,0.00,CLR,SCT,0.00,WeatherDisplay:10.37,2013-05-07 03:04:00,
2013-05-06 23:05:00,58.7,52.9,30.02,NE,41,0.0,0.0,81,0.00,CLR,SCT,0.00,WeatherDisplay:10.37,2013-05-07 03:05:00,
2013-05-06 23:06:00,58.6,52.8,30.02,NE,41,0.0,0.0,81,0.00,CLR,SCT,0.00,WeatherDisplay:10.37,2013-05-07 03:06:00,
2013-05-06 23:07:00,58.6,52.8,30.02,NE,41,0.0,0.0,81,0.00,CLR,SCT,0.00,WeatherDisplay:10.37,2013-05-07 03:07:00,
2013-05-06 23:08:00,58.5,53.0,30.02,NE,41,0.0,0.0,82,0.00,CLR,SCT,0.00,WeatherDisplay:10.37,2013-05-07 03:08:00,
2013-05-06 23:10:00,58.5,53.0,30.02,NNE,32,0.0,0.0,82,0.00,CLR,SCT,0.00,WeatherDisplay:10.37,2013-05-07 03:10:00,
2013-05-06 23:11:00,58.5,53.4,30.02,NNE,32,0.0,0.0,83,0.00,CLR,SCT,0.00,WeatherDisplay:10.37,2013-05-07 03:11:00,
2013-05-06 23:12:00,58.5,53.4,30.02,NNE,32,0.0,0.0,83,0.00,CLR,SCT,0.00,WeatherDisplay:10.37,2013-05-07 03:12:00,
2013-05-06 23:13:00,58.5,53.4,30.02,NNE,32,0.0,0.0,83,0.00,CLR,SCT,0.00,WeatherDisplay:10.37,2013-05-07 03:13:00,
2013-05-06 23:15:00,58.5,53.4,30.02,NNE,32,0.0,0.0,83,0.00,CLR,SCT,0.00,WeatherDisplay:10.37,2013-05-07 03:15:00,
2013-05-06 23:16:00,58.5,53.4,30.02,NNE,32,0.0,0.0,83,0.00,CLR,SCT,0.00,WeatherDisplay:10.37,2013-05-07 03:16:00,
2013-05-06 23:17:00,58.5,53.4,30.02,NNE,32,0.0,0.0,83,0.00,CLR,SCT,0.00,WeatherDisplay:10.37,2013-05-07 03:17:00,
2013-05-06 23:19:00,58.6,53.5,30.02,NNE,32,0.0,0.0,83,0.00,CLR,SCT,0.00,WeatherDisplay:10.37,2013-05-07 03:19:00,
2013-05-06 23:21:00,58.6,53.5,30.02,NNE,32,0.0,0.0,83,0.00,CLR,SCT,0.00,WeatherDisplay:10.37,2013-05-07 03:21:00,
2013-05-06 23:22:00,58.5,53.4,30.02,NNE,32,0.0,0.0,83,0.00,CLR,SCT,0.00,WeatherDisplay:10.37,2013-05-07 03:22:00,
2013-05-06 23:25:00,58.4,53.3,30.02,NNE,32,0.0,0.0,83,0.00,CLR,SCT,0.00,WeatherDisplay:10.37,2013-05-07 03:25:00,
2013-05-06 23:26:00,58.4,53.3,30.02,NNE,32,0.0,0.0,83,0.00,CLR,SCT,0.00,WeatherDisplay:10.37,2013-05-07 03:26:00,
2013-05-06 23:28:00,58.4,53.3,30.02,NNE,32,0.0,0.0,83,0.00,CLR,SCT,0.00,WeatherDisplay:10.37,2013-05-07 03:28:00,
2013-05-06 23:31:00,58.3,53.2,30.02,NNE,32,0.0,0.0,83,0.00,CLR,SCT,0.00,WeatherDisplay:10.37,2013-05-07 03:31:00,
2013-05-06 23:32:00,58.3,53.2,30.02,NNE,32,0.0,0.0,83,0.00,CLR,SCT,0.00,WeatherDisplay:10.37,2013-05-07 03:32:00,
2013-05-06 23:33:00,58.3,53.2,30.02,NNE,32,0.0,0.0,83,0.00,CLR,SCT,0.00,WeatherDisplay:10.37,2013-05-07 03:33:00,
2013-05-06 23:36:00,58.2,53.1,30.02,NNE,32,0.0,0.0,83,0.00,CLR,SCT,0.00,WeatherDisplay:10.37,2013-05-07 03:36:00,
2013-05-06 23:37:00,58.2,53.1,30.02,NNE,32,0.0,0.0,83,0.00,CLR,SCT,0.00,WeatherDisplay:10.37,2013-05-07 03:37:00,
2013-05-06 23:38:00,58.1,53.0,30.02,NNE,32,0.0,0.0,83,0.00,CLR,SCT,0.00,WeatherDisplay:10.37,2013-05-07 03:38:00,
2013-05-06 23:41:00,58.0,52.9,30.02,NNE,32,0.0,0.0,83,0.00,CLR,SCT,0.00,WeatherDisplay:10.37,2013-05-07 03:41:00,
2013-05-06 23:42:00,57.9,52.8,30.02,NNE,32,0.0,0.0,83,0.00,CLR,SCT,0.00,WeatherDisplay:10.37,2013-05-07 03:42:00,
2013-05-06 23:43:00,57.9,52.8,30.02,NNE,32,0.0,0.0,83,0.00,CLR,SCT,0.00,WeatherDisplay:10.37,2013-05-07 03:43:00,
2013-05-06 23:44:00,57.8,52.7,30.02,NNE,32,0.0,0.0,83,0.00,CLR,SCT,0.00,WeatherDisplay:10.37,2013-05-07 03:44:00,
2013-05-06 23:46:00,57.8,53.0,30.02,NNE,32,0.0,0.0,84,0.00,CLR,SCT,0.00,WeatherDisplay:10.37,2013-05-07 03:46:00,
2013-05-06 23:47:00,57.8,53.0,30.02,NNE,32,0.0,0.0,84,0.00,CLR,SCT,0.00,WeatherDisplay:10.37,2013-05-07 03:47:00,
2013-05-06 23:48:00,57.7,52.9,30.02,NNE,32,0.0,0.0,84,0.00,CLR,SCT,0.00,WeatherDisplay:10.37,2013-05-07 03:48:00,
2013-05-06 23:49:00,57.7,52.9,30.02,NNE,32,0.0,0.0,84,0.00,CLR,SCT,0.00,WeatherDisplay:10.37,2013-05-07 03:49:00,
2013-05-06 23:52:00,57.7,52.9,30.02,NNE,32,0.0,0.0,84,0.00,CLR,SCT,0.00,WeatherDisplay:10.37,2013-05-07 03:52:00,
2013-05-06 23:53:00,57.7,52.9,30.02,NNE,32,0.0,0.0,84,0.00,CLR,SCT,0.00,WeatherDisplay:10.37,2013-05-07 03:53:00,
2013-05-06 23:54:00,57.6,53.1,30.02,NNE,32,0.0,0.0,85,0.00,CLR,SCT,0.00,WeatherDisplay:10.37,2013-05-07 03:54:00,
2013-05-06 23:57:00,57.6,53.1,30.02,NNE,32,0.0,0.0,85,0.00,CLR,SCT,0.00,WeatherDisplay:10.37,2013-05-07 03:57:00,
2013-05-06 23:58:00,57.6,53.1,30.02,NNE,32,0.0,0.0,85,0.00,CLR,SCT,0.00,WeatherDisplay:10.37,2013-05-07 03:58:00,